HAZ7713 ZYTX-KLAX

Flight info

Callsign HAZ7713
Flight time 11h 8m
Altitude 33100
Route LEM62D LEMOT A588 HRB G212 JMU/K0917S1070 G212 ARGUK/K0919F350 N222 ASLUT/K0924F370 N222 BUMAT A828 GIRLO N222 VALDA/N0494F370 H222 MCG J111 TED/N0475F390 J804R MDO B453 BOXER DCT FOT DCT ENI DCT BURGL BAYST1
Aircraft A359/H-SDE2E3GHIJ3J4J5LM1ORWXY/LB1D1

Departure

Time 2026-04-22 17:26
Airport Shenyang Taoxian International Airport (ZYTX)

Arrival

Time 2026-04-23 04:34
Airport Los Angeles International Airport (KLAX)
Time Latitude Longitude Altitude Speed Heading
2026-04-22 17:03 41.63339 123.48185 206 ft 0 kts 138°
2026-04-22 17:16 41.63356 123.48166 216 ft 4 kts 146°
2026-04-22 17:17 41.63379 123.48148 217 ft 4 kts 159°
2026-04-22 17:17 41.63414 123.48139 212 ft 4 kts 188°
2026-04-22 17:17 41.63430 123.48145 219 ft 4 kts 214°
2026-04-22 17:17 41.63439 123.48154 219 ft 0 kts 229°
2026-04-22 17:21 41.63439 123.48153 219 ft 1 kts 229°
2026-04-22 17:21 41.63362 123.48042 218 ft 15 kts 229°
2026-04-22 17:22 41.63240 123.47756 216 ft 13 kts 307°
2026-04-22 17:22 41.63279 123.47636 214 ft 16 kts 255°
2026-04-22 17:22 41.63093 123.47335 218 ft 27 kts 229°
2026-04-22 17:23 41.62961 123.47135 213 ft 27 kts 230°
2026-04-22 17:23 41.62974 123.47022 218 ft 5 kts 314°
2026-04-22 17:23 41.63001 123.46985 213 ft 6 kts 315°
2026-04-22 17:24 41.63035 123.46945 218 ft 4 kts 333°
2026-04-22 17:24 41.63062 123.46947 214 ft 4 kts 11°
2026-04-22 17:24 41.63079 123.46962 213 ft 2 kts 38°
2026-04-22 17:24 41.63084 123.46967 212 ft 1 kts 33°
2026-04-22 17:25 41.63098 123.46986 216 ft 6 kts 47°
2026-04-22 17:25 41.63284 123.47260 213 ft 72 kts 49°
2026-04-22 17:25 41.63742 123.47956 216 ft 128 kts 49°
2026-04-22 17:25 41.64442 123.49023 258 ft 170 kts 50°
2026-04-22 17:26 41.65182 123.50166 1004 ft 157 kts 50°
2026-04-22 17:26 41.65897 123.51271 1524 ft 161 kts 49°
2026-04-22 17:26 41.66673 123.52427 1753 ft 173 kts 49°
2026-04-22 17:26 41.67514 123.53674 1953 ft 188 kts 49°
2026-04-22 17:27 41.68421 123.55029 2169 ft 204 kts 49°
2026-04-22 17:27 41.69409 123.56513 2360 ft 222 kts 49°
2026-04-22 17:27 41.70432 123.58127 2593 ft 239 kts 54°
2026-04-22 17:27 41.71028 123.60224 2949 ft 248 kts 85°
2026-04-22 17:28 41.71030 123.62559 3488 ft 253 kts 91°
2026-04-22 17:28 41.70957 123.64906 4012 ft 257 kts 91°
2026-04-22 17:28 41.70884 123.67330 4568 ft 260 kts 90°
2026-04-22 17:28 41.70817 123.69763 5105 ft 263 kts 90°
2026-04-22 17:29 41.70754 123.72214 5638 ft 267 kts 89°
2026-04-22 17:29 41.70692 123.74724 6165 ft 271 kts 89°
2026-04-22 17:29 41.70630 123.77248 6681 ft 274 kts 89°
2026-04-22 17:29 41.70689 123.79788 7163 ft 276 kts 77°
2026-04-22 17:30 41.71309 123.82182 7670 ft 273 kts 60°
2026-04-22 17:30 41.72181 123.84456 8216 ft 276 kts 59°
2026-04-22 17:30 41.73073 123.86740 8744 ft 279 kts 59°
2026-04-22 17:30 41.73976 123.89074 9302 ft 282 kts 59°
2026-04-22 17:31 41.74874 123.91406 9845 ft 286 kts 59°
2026-04-22 17:31 41.75797 123.93816 10290 ft 293 kts 59°
2026-04-22 17:31 41.76746 123.96299 10522 ft 306 kts 59°
2026-04-22 17:31 41.77722 123.98847 10778 ft 318 kts 59°
2026-04-22 17:32 41.78750 124.01537 11037 ft 330 kts 59°
2026-04-22 17:32 41.79809 124.04318 11286 ft 342 kts 59°
2026-04-22 17:32 41.80908 124.07206 11526 ft 353 kts 59°
2026-04-22 17:32 41.82022 124.10197 11765 ft 365 kts 62°
2026-04-22 17:33 41.82916 124.13450 11981 ft 378 kts 69°
2026-04-22 17:33 41.83682 124.16874 12224 ft 388 kts 70°
2026-04-22 17:33 41.84449 124.20378 12538 ft 394 kts 70°
2026-04-22 17:33 41.85227 124.23923 12942 ft 398 kts 70°
2026-04-22 17:34 41.86014 124.27498 13353 ft 401 kts 70°
2026-04-22 17:34 41.86797 124.31052 13771 ft 404 kts 70°
2026-04-22 17:34 41.87596 124.34679 14160 ft 407 kts 70°
2026-04-22 17:34 41.88402 124.38338 14529 ft 410 kts 70°
2026-04-22 17:35 41.89212 124.42024 14890 ft 414 kts 70°
2026-04-22 17:35 41.90031 124.45753 15225 ft 417 kts 70°
2026-04-22 17:35 41.90852 124.49498 15616 ft 420 kts 70°
2026-04-22 17:35 41.91677 124.53271 16000 ft 422 kts 71°
2026-04-22 17:36 41.92506 124.57062 16362 ft 425 kts 71°
2026-04-22 17:36 41.93333 124.60838 16725 ft 428 kts 70°
2026-04-22 17:36 41.94414 124.64545 17086 ft 426 kts 58°
2026-04-22 17:36 41.96126 124.67747 17425 ft 421 kts 42°
2026-04-22 17:37 41.98379 124.70161 17785 ft 416 kts 27°
2026-04-22 17:37 42.00948 124.72029 18138 ft 418 kts 23°
2026-04-22 17:37 42.03554 124.73792 18466 ft 420 kts 22°
2026-04-22 17:37 42.06168 124.75563 18779 ft 423 kts 23°
2026-04-22 17:38 42.08808 124.77363 19089 ft 425 kts 23°
2026-04-22 17:38 42.11443 124.79167 19377 ft 428 kts 23°
2026-04-22 17:38 42.14117 124.81005 19680 ft 431 kts 23°
2026-04-22 17:38 42.16750 124.82813 19998 ft 433 kts 22°
2026-04-22 17:39 42.19445 124.84666 20319 ft 435 kts 22°
2026-04-22 17:39 42.22149 124.86528 20640 ft 437 kts 22°
2026-04-22 17:39 42.27603 124.90296 21231 ft 443 kts 22°
2026-04-22 17:40 42.30353 124.92195 21528 ft 445 kts 22°
2026-04-22 17:40 42.33119 124.94107 21843 ft 448 kts 22°
2026-04-22 17:40 42.35892 124.96027 22153 ft 450 kts 22°
2026-04-22 17:40 42.38684 124.97962 22447 ft 452 kts 22°
2026-04-22 17:41 42.41457 124.99886 22775 ft 455 kts 22°
2026-04-22 17:41 42.44268 125.01838 23079 ft 457 kts 22°
2026-04-22 17:41 42.47111 125.03814 23385 ft 459 kts 22°
2026-04-22 17:41 42.49965 125.05798 23680 ft 462 kts 22°
2026-04-22 17:42 42.52831 125.07795 23958 ft 463 kts 22°
2026-04-22 17:42 42.55699 125.09799 24214 ft 465 kts 22°
2026-04-22 17:42 42.58584 125.11814 24453 ft 468 kts 22°
2026-04-22 17:42 42.61439 125.13739 24681 ft 468 kts 18°
2026-04-22 17:43 42.64517 125.15191 24921 ft 462 kts
2026-04-22 17:43 42.67664 125.15928 25180 ft 459 kts
2026-04-22 17:43 42.70839 125.16461 25470 ft 460 kts
2026-04-22 17:43 42.74021 125.16976 25726 ft 462 kts
2026-04-22 17:44 42.77224 125.17498 25980 ft 464 kts
2026-04-22 17:44 42.80437 125.18138 26231 ft 470 kts
2026-04-22 17:44 42.83612 125.19359 26489 ft 481 kts 15°
2026-04-22 17:44 42.86648 125.21158 26718 ft 487 kts 19°
2026-04-22 17:45 42.89703 125.23186 26994 ft 491 kts 20°
2026-04-22 17:45 42.92709 125.25281 27231 ft 494 kts 21°
2026-04-22 17:45 42.95761 125.27448 27462 ft 496 kts 21°
2026-04-22 17:45 42.98831 125.29631 27689 ft 498 kts 21°
2026-04-22 17:46 43.01918 125.31818 27932 ft 500 kts 21°
2026-04-22 17:46 43.05011 125.33996 28188 ft 502 kts 20°
2026-04-22 17:46 43.08116 125.36174 28472 ft 503 kts 20°
2026-04-22 17:46 43.11241 125.38362 28680 ft 505 kts 20°
2026-04-22 17:47 43.14377 125.40554 28872 ft 507 kts 20°
2026-04-22 17:47 43.17481 125.42729 29131 ft 507 kts 20°
2026-04-22 17:47 43.20614 125.44928 29412 ft 507 kts 20°
2026-04-22 17:47 43.23673 125.47075 29706 ft 507 kts 20°
2026-04-22 17:48 43.26802 125.49276 30082 ft 505 kts 19°
2026-04-22 17:48 43.29934 125.51481 30318 ft 506 kts 19°
2026-04-22 17:48 43.33069 125.53687 30505 ft 507 kts 19°
2026-04-22 17:48 43.36209 125.55901 30721 ft 507 kts 19°
2026-04-22 17:49 43.39297 125.58081 30934 ft 507 kts 19°
2026-04-22 17:49 43.42444 125.60305 31139 ft 508 kts 19°
2026-04-22 17:49 43.45583 125.62527 31346 ft 508 kts 19°
2026-04-22 17:49 43.48735 125.64761 31549 ft 509 kts 19°
2026-04-22 17:50 43.51878 125.66992 31740 ft 509 kts 19°
2026-04-22 17:50 43.55026 125.69229 31928 ft 510 kts 19°
2026-04-22 17:50 43.58175 125.71469 32165 ft 510 kts 19°
2026-04-22 17:50 43.61331 125.73717 32398 ft 509 kts 19°
2026-04-22 17:51 43.64429 125.75928 32703 ft 507 kts 19°
2026-04-22 17:51 43.67559 125.78163 32874 ft 508 kts 19°
2026-04-22 17:51 43.70693 125.80401 33027 ft 509 kts 19°
2026-04-22 17:51 43.73853 125.82644 33189 ft 508 kts 18°
2026-04-22 17:52 43.77087 125.84488 33401 ft 497 kts
2026-04-22 17:52 43.80389 125.85665 33683 ft 485 kts
2026-04-22 17:52 43.83705 125.86505 33838 ft 484 kts
2026-04-22 17:52 43.87026 125.87248 33973 ft 484 kts 360°
2026-04-22 17:53 43.90340 125.87938 34132 ft 483 kts 359°
2026-04-22 17:53 43.93640 125.88606 34282 ft 483 kts 359°
2026-04-22 17:53 43.96957 125.89282 34473 ft 483 kts 359°
2026-04-22 17:54 44.03598 125.90695 34532 ft 482 kts
2026-04-22 17:54 44.10189 125.92131 34521 ft 480 kts
2026-04-22 17:55 44.16792 125.93575 34517 ft 479 kts
2026-04-22 17:55 44.23326 125.95004 34520 ft 479 kts
2026-04-22 17:56 44.29915 125.96448 34513 ft 479 kts
2026-04-22 17:56 44.36495 125.97892 34518 ft 479 kts
2026-04-22 17:57 44.43079 125.99340 34527 ft 478 kts
2026-04-22 17:57 44.49597 126.00784 34512 ft 478 kts
2026-04-22 17:58 44.56165 126.02235 34512 ft 478 kts
2026-04-22 17:58 44.62725 126.03663 34517 ft 478 kts
2026-04-22 17:59 44.69318 126.05105 34512 ft 478 kts
2026-04-22 17:59 44.75836 126.06549 34507 ft 478 kts
2026-04-22 18:00 44.81336 126.07767 34506 ft 478 kts
2026-04-22 18:00 44.88976 126.09450 34503 ft 477 kts
2026-04-22 18:01 44.95536 126.10903 34501 ft 477 kts
2026-04-22 18:01 45.02042 126.12349 34495 ft 477 kts
2026-04-22 18:02 45.08605 126.13812 34497 ft 477 kts
2026-04-22 18:02 45.15157 126.15277 34495 ft 477 kts
2026-04-22 18:03 45.21713 126.16745 34496 ft 477 kts
2026-04-22 18:03 45.28233 126.18209 34502 ft 477 kts
2026-04-22 18:04 45.34747 126.19675 34484 ft 477 kts
2026-04-22 18:04 45.41308 126.21155 34475 ft 477 kts
2026-04-22 18:05 45.47863 126.22638 34470 ft 477 kts
2026-04-22 18:05 45.54360 126.24506 34469 ft 487 kts 10°
2026-04-22 18:06 45.60511 126.28914 34466 ft 508 kts 30°
2026-04-22 18:06 45.63192 126.32274 34470 ft 519 kts 41°
2026-04-22 18:06 45.65449 126.36354 34554 ft 529 kts 52°
2026-04-22 18:06 45.67196 126.40988 34754 ft 533 kts 60°
2026-04-22 18:07 45.68718 126.45837 35001 ft 532 kts 62°
2026-04-22 18:07 45.71568 126.55587 35093 ft 537 kts 63°
2026-04-22 18:08 45.74430 126.65520 35090 ft 542 kts 63°
2026-04-22 18:08 45.77328 126.75480 35118 ft 542 kts 63°
2026-04-22 18:09 45.80232 126.85424 35090 ft 540 kts 63°
2026-04-22 18:09 45.83126 126.95349 35090 ft 539 kts 63°
2026-04-22 18:10 45.85987 127.05200 35093 ft 539 kts 63°
2026-04-22 18:10 45.88864 127.15150 35103 ft 539 kts 63°
2026-04-22 18:11 45.91722 127.25080 35092 ft 538 kts 63°
2026-04-22 18:11 45.94572 127.35019 35096 ft 538 kts 63°
2026-04-22 18:12 45.97428 127.44963 35096 ft 539 kts 62°
2026-04-22 18:12 45.99922 127.53190 35102 ft 538 kts 62°
2026-04-22 18:13 46.03445 127.64619 35108 ft 538 kts 62°
2026-04-22 18:13 46.04944 127.69527 35328 ft 534 kts 62°
2026-04-22 18:13 46.06432 127.74430 35484 ft 534 kts 62°
2026-04-22 18:14 46.09403 127.84274 35497 ft 538 kts 62°
2026-04-22 18:14 46.12348 127.94094 35489 ft 537 kts 62°
2026-04-22 18:15 46.15298 128.03972 35508 ft 536 kts 62°
2026-04-22 18:15 46.18238 128.13849 35491 ft 536 kts 62°
2026-04-22 18:16 46.21162 128.23709 35512 ft 536 kts 62°
2026-04-22 18:16 46.24088 128.33618 35499 ft 534 kts 62°
2026-04-22 18:17 46.26970 128.43414 35498 ft 533 kts 63°
2026-04-22 18:17 46.29853 128.53252 35497 ft 533 kts 63°
2026-04-22 18:18 46.32749 128.63170 35500 ft 533 kts 63°
2026-04-22 18:18 46.35615 128.73039 35498 ft 531 kts 63°
2026-04-22 18:19 46.38454 128.82840 35498 ft 531 kts 63°
2026-04-22 18:19 46.41304 128.92709 35497 ft 531 kts 63°
2026-04-22 18:20 46.44144 129.02608 35498 ft 531 kts 63°
2026-04-22 18:20 46.46958 129.12457 35118 ft 524 kts 63°
2026-04-22 18:21 46.49756 129.22276 34977 ft 530 kts 63°
2026-04-22 18:21 46.52556 129.32133 35066 ft 534 kts 63°
2026-04-22 18:22 46.55378 129.42125 35102 ft 532 kts 64°
2026-04-22 18:22 46.58176 129.52071 35103 ft 531 kts 64°
2026-04-22 18:23 46.60947 129.61964 35041 ft 532 kts 64°
2026-04-22 18:23 46.63728 129.71927 35005 ft 531 kts 64°
2026-04-22 18:24 46.67879 129.86874 35001 ft 531 kts 64°
2026-04-22 18:25 46.72016 130.01865 35006 ft 532 kts 64°
2026-04-22 18:25 46.74743 130.11801 35016 ft 531 kts 64°
2026-04-22 18:26 46.78837 130.26793 35003 ft 530 kts 64°
2026-04-22 18:26 46.81554 130.36797 34999 ft 531 kts 65°
2026-04-22 18:27 46.84269 130.46832 35004 ft 531 kts 65°
2026-04-22 18:27 46.86948 130.56784 35000 ft 529 kts 65°
2026-04-22 18:28 46.89620 130.66809 34998 ft 529 kts 65°
2026-04-22 18:28 46.92281 130.76828 34998 ft 529 kts 65°
2026-04-22 18:29 46.94937 130.86860 35013 ft 529 kts 65°
2026-04-22 18:29 46.97570 130.96844 34995 ft 529 kts 65°
2026-04-22 18:30 47.01522 131.11910 34993 ft 529 kts 66°
2026-04-22 18:31 47.04152 131.21990 34992 ft 529 kts 66°
2026-04-22 18:31 47.06776 131.32091 34995 ft 530 kts 66°
2026-04-22 18:32 47.09386 131.42187 34991 ft 529 kts 66°
2026-04-22 18:32 47.11971 131.52228 34985 ft 529 kts 66°
2026-04-22 18:33 47.14565 131.62347 34980 ft 529 kts 66°
2026-04-22 18:33 47.17149 131.72471 34969 ft 528 kts 66°
2026-04-22 18:34 47.19716 131.82573 34976 ft 528 kts 67°
2026-04-22 18:34 47.22258 131.92620 34967 ft 528 kts 67°
2026-04-22 18:35 47.24807 132.02743 34958 ft 528 kts 67°
2026-04-22 18:35 47.27344 132.12862 34963 ft 526 kts 67°
2026-04-22 18:36 47.29868 132.22973 34960 ft 526 kts 67°
2026-04-22 18:36 47.32370 132.33038 34961 ft 527 kts 67°
2026-04-22 18:37 47.34880 132.43184 34979 ft 527 kts 68°
2026-04-22 18:37 47.37379 132.53333 34954 ft 525 kts 68°
2026-04-22 18:38 47.39861 132.63462 34948 ft 524 kts 68°
2026-04-22 18:38 47.42332 132.73583 34950 ft 524 kts 68°
2026-04-22 18:39 47.46006 132.88723 34945 ft 523 kts 69°
2026-04-22 18:39 47.48447 132.98839 34940 ft 522 kts 69°
2026-04-22 18:40 47.50877 133.08957 34939 ft 522 kts 69°
2026-04-22 18:40 47.53301 133.19094 34939 ft 522 kts 69°
2026-04-22 18:41 47.55695 133.29152 34936 ft 522 kts 69°
2026-04-22 18:41 47.58096 133.39289 34933 ft 521 kts 69°
2026-04-22 18:42 47.60483 133.49415 34936 ft 521 kts 69°
2026-04-22 18:42 47.62865 133.59564 34927 ft 521 kts 69°
2026-04-22 18:43 47.65220 133.69644 34930 ft 521 kts 69°
2026-04-22 18:43 47.67580 133.79793 34925 ft 521 kts 69°
2026-04-22 18:44 47.69938 133.89983 34919 ft 521 kts 69°
2026-04-22 18:44 47.72282 134.00158 34919 ft 521 kts 70°
2026-04-22 18:45 47.74600 134.10272 34919 ft 519 kts 70°
2026-04-22 18:45 47.76912 134.20409 34916 ft 517 kts 70°
2026-04-22 18:46 47.79212 134.30537 34910 ft 517 kts 70°
2026-04-22 18:46 47.81511 134.40706 34912 ft 519 kts 70°
2026-04-22 18:47 47.83788 134.50831 34910 ft 518 kts 70°
2026-04-22 18:47 47.86060 134.60952 34903 ft 515 kts 70°
2026-04-22 18:48 47.87656 134.65691 34920 ft 511 kts 55°
2026-04-22 18:48 47.89696 134.70024 34890 ft 508 kts 45°
2026-04-22 18:48 47.92338 134.73463 34908 ft 504 kts 31°
2026-04-22 18:48 47.95453 134.75771 34912 ft 499 kts 17°
2026-04-22 18:49 48.02095 134.78807 34900 ft 501 kts 17°
2026-04-22 18:49 48.08580 134.82683 34902 ft 503 kts 24°
2026-04-22 18:50 48.14748 134.87477 34903 ft 503 kts 27°
2026-04-22 18:50 48.20847 134.92628 34903 ft 503 kts 28°
2026-04-22 18:51 48.26935 134.97795 34892 ft 502 kts 28°
2026-04-22 18:51 48.33026 135.02923 34889 ft 502 kts 28°
2026-04-22 18:52 48.39084 135.08009 34892 ft 502 kts 28°
2026-04-22 18:52 48.45178 135.13136 34889 ft 502 kts 28°
2026-04-22 18:53 48.51266 135.18277 34890 ft 502 kts 28°
2026-04-22 18:53 48.56852 135.24556 34882 ft 502 kts 41°
2026-04-22 18:54 48.61904 135.31753 34888 ft 502 kts 44°
2026-04-22 18:54 48.66889 135.39124 34887 ft 500 kts 44°
2026-04-22 18:55 48.71849 135.46494 34889 ft 500 kts 44°
2026-04-22 18:55 48.76825 135.53878 34888 ft 500 kts 44°
2026-04-22 18:56 48.81763 135.61208 34894 ft 499 kts 44°
2026-04-22 18:56 48.86721 135.68587 34895 ft 499 kts 44°
2026-04-22 18:57 48.91679 135.75989 34901 ft 500 kts 44°
2026-04-22 18:57 48.96634 135.83410 34899 ft 499 kts 45°
2026-04-22 18:58 49.01524 135.90776 34902 ft 497 kts 45°
2026-04-22 18:58 49.06408 135.98209 34897 ft 496 kts 45°
2026-04-22 18:59 49.11294 136.05670 34903 ft 496 kts 45°
2026-04-22 18:59 49.16167 136.13123 34903 ft 495 kts 46°
2026-04-22 19:00 49.21022 136.20567 34909 ft 494 kts 46°
2026-04-22 19:00 49.25833 136.27966 34909 ft 493 kts 46°
2026-04-22 19:01 49.30670 136.35428 34904 ft 493 kts 46°
2026-04-22 19:01 49.35502 136.42902 34901 ft 493 kts 46°
2026-04-22 19:02 49.40297 136.50343 34901 ft 493 kts 46°
2026-04-22 19:02 49.45341 136.57483 34907 ft 494 kts 36°
2026-04-22 19:03 49.50990 136.63516 34911 ft 495 kts 35°
2026-04-22 19:03 49.56715 136.69370 34911 ft 494 kts 34°
2026-04-22 19:04 49.62407 136.75160 34908 ft 493 kts 35°
2026-04-22 19:04 49.68108 136.81007 34911 ft 492 kts 35°
2026-04-22 19:05 49.73804 136.86882 34913 ft 491 kts 35°
2026-04-22 19:05 49.79480 136.92755 34916 ft 491 kts 35°
2026-04-22 19:06 49.85149 136.98636 34919 ft 491 kts 35°
2026-04-22 19:07 49.93610 137.07443 34920 ft 490 kts 36°
2026-04-22 19:07 49.99258 137.13343 34922 ft 489 kts 36°
2026-04-22 19:08 50.04904 137.19258 34921 ft 489 kts 36°
2026-04-22 19:08 50.10543 137.25190 34920 ft 489 kts 36°
2026-04-22 19:09 50.16115 137.31135 34919 ft 487 kts 37°
2026-04-22 19:09 50.20746 137.36101 34925 ft 484 kts 37°
2026-04-22 19:10 50.26289 137.42064 34926 ft 483 kts 37°
2026-04-22 19:10 50.32761 137.49042 34925 ft 483 kts 37°
2026-04-22 19:11 50.38248 137.54971 34921 ft 480 kts 38°
2026-04-22 19:11 50.43608 137.61129 34931 ft 477 kts 41°
2026-04-22 19:12 50.48818 137.67556 34927 ft 476 kts 41°
2026-04-22 19:12 50.54027 137.73971 34923 ft 476 kts 41°
2026-04-22 19:13 50.59230 137.80315 34928 ft 474 kts 41°
2026-04-22 19:13 50.64450 137.86664 34929 ft 474 kts 41°
2026-04-22 19:14 50.69660 137.93016 34930 ft 474 kts 41°
2026-04-22 19:14 50.74870 137.99392 34930 ft 474 kts 41°
2026-04-22 19:15 50.79187 138.04689 34932 ft 472 kts 41°
2026-04-22 19:15 50.85191 138.12071 34995 ft 469 kts 42°
2026-04-22 19:15 50.87758 138.15240 35144 ft 468 kts 42°
2026-04-22 19:16 50.90324 138.18411 35258 ft 469 kts 41°
2026-04-22 19:16 50.93006 138.21397 35362 ft 472 kts 37°
2026-04-22 19:16 50.95741 138.24273 35431 ft 473 kts 37°
2026-04-22 19:17 51.01219 138.29956 35439 ft 473 kts 37°
2026-04-22 19:17 51.06730 138.35648 35453 ft 473 kts 37°
2026-04-22 19:18 51.12238 138.41353 35457 ft 472 kts 37°
2026-04-22 19:18 51.17744 138.47081 35442 ft 472 kts 37°
2026-04-22 19:19 51.23235 138.52813 35454 ft 472 kts 37°
2026-04-22 19:19 51.28722 138.58557 35453 ft 471 kts 37°
2026-04-22 19:20 51.34162 138.64270 35456 ft 471 kts 37°
2026-04-22 19:20 51.39646 138.70048 35451 ft 471 kts 37°
2026-04-22 19:21 51.45116 138.75826 35469 ft 471 kts 37°
2026-04-22 19:21 51.50586 138.81616 35468 ft 471 kts 37°
2026-04-22 19:22 51.56051 138.87419 35472 ft 471 kts 37°
2026-04-22 19:22 51.61482 138.93202 35472 ft 471 kts 37°
2026-04-22 19:23 51.66945 138.99041 35473 ft 471 kts 37°
2026-04-22 19:23 51.72410 139.04896 35474 ft 471 kts 37°
2026-04-22 19:24 51.77867 139.10761 35472 ft 471 kts 37°
2026-04-22 19:24 51.83285 139.16600 35475 ft 471 kts 37°
2026-04-22 19:25 51.88736 139.22494 35480 ft 471 kts 37°
2026-04-22 19:25 51.94186 139.28402 35483 ft 471 kts 37°
2026-04-22 19:26 51.99633 139.34325 35481 ft 471 kts 37°
2026-04-22 19:26 52.05035 139.40218 35483 ft 471 kts 37°
2026-04-22 19:27 52.10481 139.46175 35482 ft 472 kts 37°
2026-04-22 19:27 52.15925 139.52149 35482 ft 472 kts 37°
2026-04-22 19:28 52.21369 139.58141 35480 ft 472 kts 37°
2026-04-22 19:28 52.26807 139.64145 35482 ft 472 kts 37°
2026-04-22 19:29 52.32205 139.70122 35489 ft 472 kts 36°
2026-04-22 19:29 52.37645 139.76164 35496 ft 473 kts 37°
2026-04-22 19:30 52.42170 139.81202 35500 ft 473 kts 37°
2026-04-22 19:30 52.48524 139.88300 35495 ft 473 kts 37°
2026-04-22 19:31 52.53925 139.94351 35499 ft 473 kts 36°
2026-04-22 19:31 52.59360 140.00459 35503 ft 473 kts 36°
2026-04-22 19:32 52.64789 140.06598 35505 ft 473 kts 37°
2026-04-22 19:32 52.70097 140.12994 35507 ft 473 kts 39°
2026-04-22 19:33 52.75362 140.19514 35510 ft 473 kts 39°
2026-04-22 19:33 52.80605 140.25980 35521 ft 474 kts 38°
2026-04-22 19:34 52.85900 140.32480 35519 ft 474 kts 38°
2026-04-22 19:34 52.91198 140.38989 35526 ft 474 kts 38°
2026-04-22 19:35 52.96494 140.45516 35527 ft 474 kts 38°
2026-04-22 19:35 53.00894 140.50957 35531 ft 474 kts 38°
2026-04-22 19:36 53.07038 140.58580 35541 ft 474 kts 38°
2026-04-22 19:36 53.12321 140.65157 35539 ft 474 kts 38°
2026-04-22 19:37 53.17558 140.71814 35548 ft 474 kts 41°
2026-04-22 19:37 53.22451 140.79043 35549 ft 473 kts 44°
2026-04-22 19:38 53.27293 140.86479 35551 ft 473 kts 44°
2026-04-22 19:38 53.32171 140.93851 35556 ft 473 kts 43°
2026-04-22 19:39 53.37076 141.01180 35556 ft 473 kts 43°
2026-04-22 19:39 53.41948 141.08453 35554 ft 473 kts 43°
2026-04-22 19:40 53.46854 141.15804 35558 ft 473 kts 43°
2026-04-22 19:40 53.51755 141.23177 35559 ft 473 kts 43°
2026-04-22 19:41 53.56638 141.30549 35560 ft 473 kts 44°
2026-04-22 19:41 53.61528 141.37956 35563 ft 473 kts 44°
2026-04-22 19:42 53.66372 141.45316 35565 ft 473 kts 44°
2026-04-22 19:42 53.71255 141.52759 35563 ft 473 kts 44°
2026-04-22 19:43 53.78568 141.63952 35567 ft 473 kts 44°
2026-04-22 19:43 53.83434 141.71430 35567 ft 473 kts 44°
2026-04-22 19:44 53.88260 141.78872 35568 ft 472 kts 44°
2026-04-22 19:44 53.93120 141.86389 35578 ft 473 kts 44°
2026-04-22 19:45 53.97974 141.93923 35581 ft 473 kts 44°
2026-04-22 19:45 54.02821 142.01471 35580 ft 473 kts 44°
2026-04-22 19:46 54.07637 142.08995 35583 ft 473 kts 44°
2026-04-22 19:46 54.12478 142.16584 35583 ft 473 kts 44°
2026-04-22 19:47 54.17315 142.24192 35586 ft 473 kts 44°
2026-04-22 19:47 54.22138 142.31803 35589 ft 473 kts 44°
2026-04-22 19:48 54.26934 142.39396 35590 ft 472 kts 44°
2026-04-22 19:48 54.31754 142.47053 35591 ft 472 kts 44°
2026-04-22 19:49 54.36549 142.54696 35593 ft 472 kts 45°
2026-04-22 19:49 54.41366 142.62398 35596 ft 472 kts 45°
2026-04-22 19:50 54.46132 142.70046 35598 ft 472 kts 45°
2026-04-22 19:50 54.50917 142.77749 35601 ft 471 kts 45°
2026-04-22 19:51 54.55697 142.85472 35604 ft 471 kts 45°
2026-04-22 19:51 54.60469 142.93213 35608 ft 471 kts 45°
2026-04-22 19:52 54.65200 143.01029 35603 ft 471 kts 45°
2026-04-22 19:52 54.69882 143.08826 35610 ft 471 kts 45°
2026-04-22 19:53 54.74607 143.16708 35614 ft 472 kts 45°
2026-04-22 19:53 54.79330 143.24605 35613 ft 472 kts 45°
2026-04-22 19:54 54.84018 143.32465 35617 ft 472 kts 46°
2026-04-22 19:54 54.88722 143.40381 35619 ft 471 kts 45°
2026-04-22 19:55 54.93431 143.48330 35621 ft 471 kts 46°
2026-04-22 19:55 54.98128 143.56288 35621 ft 471 kts 46°
2026-04-22 19:56 55.02783 143.64202 35632 ft 471 kts 46°
2026-04-22 19:56 55.07467 143.72193 35622 ft 471 kts 45°
2026-04-22 19:57 55.12138 143.80191 35630 ft 470 kts 46°
2026-04-22 19:57 55.16803 143.88205 35633 ft 470 kts 46°
2026-04-22 19:58 55.21459 143.96230 35634 ft 470 kts 46°
2026-04-22 19:58 55.26086 144.04233 35633 ft 470 kts 46°
2026-04-22 20:00 55.42305 144.32510 35639 ft 469 kts 46°
2026-04-22 20:01 55.46892 144.40573 35644 ft 470 kts 46°
2026-04-22 20:01 55.51523 144.48738 35646 ft 471 kts 46°
2026-04-22 20:02 55.55371 144.55543 35647 ft 471 kts 46°
2026-04-22 20:02 55.60772 144.65130 35645 ft 471 kts 46°
2026-04-22 20:03 55.64606 144.71961 35645 ft 471 kts 46°
2026-04-22 20:03 55.69965 144.81542 35643 ft 471 kts 46°
2026-04-22 20:04 55.73792 144.88408 35651 ft 471 kts 46°
2026-04-22 20:04 55.78399 144.96675 35652 ft 471 kts 46°
2026-04-22 20:05 55.83010 145.04937 35647 ft 471 kts 46°
2026-04-22 20:05 55.87615 145.13221 35648 ft 471 kts 46°
2026-04-22 20:06 55.92184 145.21480 35653 ft 471 kts 46°
2026-04-22 20:06 55.96773 145.29809 35652 ft 471 kts 46°
2026-04-22 20:07 56.01354 145.38150 35649 ft 471 kts 46°
2026-04-22 20:07 56.05654 145.46008 35653 ft 471 kts 46°
2026-04-22 20:08 56.10225 145.54400 35658 ft 471 kts 46°
2026-04-22 20:08 56.14755 145.62770 35658 ft 471 kts 46°
2026-04-22 20:09 56.19314 145.71219 35659 ft 471 kts 46°
2026-04-22 20:09 56.23868 145.79691 35660 ft 472 kts 46°
2026-04-22 20:10 56.28392 145.88136 35646 ft 472 kts 46°
2026-04-22 20:10 56.32951 145.96678 35657 ft 472 kts 46°
2026-04-22 20:11 56.37496 146.05227 35654 ft 472 kts 46°
2026-04-22 20:11 56.42033 146.13791 35656 ft 472 kts 46°
2026-04-22 20:12 56.46570 146.22385 35654 ft 472 kts 46°
2026-04-22 20:12 56.51097 146.30993 35655 ft 472 kts 46°
2026-04-22 20:13 56.55591 146.39574 35663 ft 472 kts 46°
2026-04-22 20:13 56.60099 146.48211 35649 ft 472 kts 46°
2026-04-22 20:14 56.64600 146.56864 35651 ft 472 kts 46°
2026-04-22 20:14 56.69108 146.65564 35664 ft 472 kts 46°
2026-04-22 20:15 56.73570 146.74209 35656 ft 472 kts 46°
2026-04-22 20:15 56.78055 146.82931 35655 ft 471 kts 46°
2026-04-22 20:16 56.82532 146.91669 35653 ft 471 kts 46°
2026-04-22 20:16 56.87001 147.00423 35654 ft 471 kts 46°
2026-04-22 20:17 56.91462 147.09197 35653 ft 471 kts 46°
2026-04-22 20:17 56.95883 147.17926 35648 ft 471 kts 46°
2026-04-22 20:18 57.00337 147.26751 35657 ft 471 kts 46°
2026-04-22 20:18 57.04782 147.35590 35667 ft 471 kts 46°
2026-04-22 20:19 57.09225 147.44460 35645 ft 471 kts 46°
2026-04-22 20:19 57.13629 147.53285 35645 ft 472 kts 46°
2026-04-22 20:20 57.18060 147.62200 35652 ft 471 kts 46°
2026-04-22 20:20 57.22474 147.71113 35651 ft 470 kts 46°
2026-04-22 20:21 57.26870 147.80024 35654 ft 470 kts 46°
2026-04-22 20:21 57.31248 147.88933 35654 ft 470 kts 47°
2026-04-22 20:22 57.35641 147.97907 35655 ft 470 kts 47°
2026-04-22 20:22 57.40024 148.06894 35648 ft 470 kts 47°
2026-04-22 20:23 57.44403 148.15908 35649 ft 470 kts 47°
2026-04-22 20:23 57.48775 148.24944 35646 ft 470 kts 47°
2026-04-22 20:24 57.53106 148.33927 35644 ft 470 kts 47°
2026-04-22 20:24 57.57465 148.43006 35650 ft 469 kts 47°
2026-04-22 20:25 57.61808 148.52084 35649 ft 469 kts 47°
2026-04-22 20:25 57.66145 148.61188 35649 ft 469 kts 47°
2026-04-22 20:26 57.70468 148.70297 35649 ft 469 kts 47°
2026-04-22 20:26 57.74764 148.79383 35646 ft 469 kts 47°
2026-04-22 20:27 57.79083 148.88553 35640 ft 470 kts 47°
2026-04-22 20:27 57.83403 148.97764 35643 ft 470 kts 47°
2026-04-22 20:28 57.87713 149.06987 35648 ft 470 kts 48°
2026-04-22 20:28 57.91985 149.16166 35645 ft 470 kts 48°
2026-04-22 20:29 57.96280 149.25432 35646 ft 470 kts 48°
2026-04-22 20:29 58.00572 149.34727 35638 ft 469 kts 48°
2026-04-22 20:30 58.04846 149.44016 35635 ft 469 kts 48°
2026-04-22 20:30 58.09084 149.53261 35638 ft 469 kts 48°
2026-04-22 20:31 58.13352 149.62608 35636 ft 469 kts 48°
2026-04-22 20:31 58.17605 149.71962 35639 ft 469 kts 48°
2026-04-22 20:32 58.21853 149.81340 35633 ft 469 kts 48°
2026-04-22 20:32 58.26092 149.90737 35634 ft 469 kts 49°
2026-04-22 20:33 58.30322 150.00154 35632 ft 469 kts 49°
2026-04-22 20:33 58.34520 150.09533 35632 ft 469 kts 49°
2026-04-22 20:34 58.38736 150.18995 35629 ft 468 kts 49°
2026-04-22 20:34 58.42945 150.28475 35626 ft 468 kts 49°
2026-04-22 20:35 58.47139 150.37963 35623 ft 468 kts 49°
2026-04-22 20:35 58.51301 150.47414 35620 ft 468 kts 49°
2026-04-22 20:36 58.55490 150.56968 35619 ft 468 kts 49°
2026-04-22 20:36 58.59667 150.66532 35617 ft 468 kts 49°
2026-04-22 20:37 58.63817 150.76146 35619 ft 468 kts 50°
2026-04-22 20:37 58.67882 150.85782 35622 ft 467 kts 50°
2026-04-22 20:38 58.71966 150.95520 35617 ft 467 kts 50°
2026-04-22 20:38 58.76046 151.05269 35619 ft 467 kts 50°
2026-04-22 20:39 58.80136 151.15004 35614 ft 467 kts 49°
2026-04-22 20:39 58.84227 151.24619 35615 ft 466 kts 49°
2026-04-22 20:40 58.88341 151.34303 35615 ft 466 kts 49°
2026-04-22 20:40 58.92441 151.44021 35613 ft 466 kts 50°
2026-04-22 20:41 58.96537 151.53782 35613 ft 466 kts 50°
2026-04-22 20:41 59.00585 151.63480 35619 ft 465 kts 49°
2026-04-22 20:42 59.04649 151.73250 35623 ft 465 kts 50°
2026-04-22 20:42 59.08707 151.83042 35621 ft 465 kts 50°
2026-04-22 20:43 59.12763 151.92858 35627 ft 465 kts 50°
2026-04-22 20:43 59.16808 152.02683 35648 ft 465 kts 50°
2026-04-22 20:44 59.20820 152.12475 35636 ft 465 kts 50°
2026-04-22 20:44 59.24844 152.22330 35637 ft 464 kts 50°
2026-04-22 20:45 59.28868 152.32228 35636 ft 464 kts 50°
2026-04-22 20:45 59.32875 152.42129 35642 ft 464 kts 50°
2026-04-22 20:46 59.38854 152.56981 35644 ft 464 kts 50°
2026-04-22 20:46 59.42845 152.66943 35645 ft 464 kts 50°
2026-04-22 20:47 59.46826 152.76925 35645 ft 464 kts 50°
2026-04-22 20:47 59.50798 152.86926 35649 ft 464 kts 50°
2026-04-22 20:48 59.54739 152.96893 35647 ft 464 kts 50°
2026-04-22 20:48 59.58699 153.06955 35653 ft 464 kts 50°
2026-04-22 20:49 59.62643 153.17020 35645 ft 463 kts 50°
2026-04-22 20:49 59.66578 153.27100 35652 ft 463 kts 50°
2026-04-22 20:50 59.70507 153.37206 35651 ft 463 kts 50°
2026-04-22 20:50 59.74402 153.47268 35650 ft 463 kts 50°
2026-04-22 20:51 59.78314 153.57421 35648 ft 463 kts 50°
2026-04-22 20:51 59.82218 153.67597 35647 ft 463 kts 50°
2026-04-22 20:52 59.86114 153.77798 35653 ft 463 kts 50°
2026-04-22 20:52 59.89980 153.87960 35648 ft 463 kts 50°
2026-04-22 20:53 59.93865 153.98218 35647 ft 463 kts 50°
2026-04-22 20:53 59.97735 154.08489 35650 ft 463 kts 50°
2026-04-22 20:54 60.01605 154.18798 35654 ft 464 kts 50°
2026-04-22 20:54 60.05465 154.29127 35653 ft 464 kts 50°
2026-04-22 20:55 60.09292 154.39414 35653 ft 464 kts 50°
2026-04-22 20:55 60.13140 154.49802 35652 ft 464 kts 50°
2026-04-22 20:56 60.16974 154.60205 35649 ft 463 kts 50°
2026-04-22 20:56 60.20785 154.70603 35642 ft 462 kts 51°
2026-04-22 20:57 60.24290 154.81384 35642 ft 464 kts 55°
2026-04-22 20:57 60.27649 154.92486 35647 ft 464 kts 55°
2026-04-22 20:58 60.31035 155.03572 35646 ft 464 kts 54°
2026-04-22 20:58 60.34456 155.14638 35639 ft 464 kts 54°
2026-04-22 20:59 60.37852 155.25610 35643 ft 464 kts 54°
2026-04-22 20:59 60.41265 155.36684 35644 ft 464 kts 54°
2026-04-22 21:00 60.44665 155.47788 35647 ft 464 kts 54°
2026-04-22 21:00 60.48054 155.58907 35642 ft 464 kts 54°
2026-04-22 21:01 60.51433 155.70049 35653 ft 464 kts 54°
2026-04-22 21:01 60.54782 155.81144 35638 ft 464 kts 54°
2026-04-22 21:02 60.58145 155.92337 35638 ft 464 kts 54°
2026-04-22 21:02 60.61501 156.03565 35640 ft 464 kts 54°
2026-04-22 21:03 60.64845 156.14805 35640 ft 464 kts 54°
2026-04-22 21:03 60.68155 156.25990 35649 ft 464 kts 54°
2026-04-22 21:04 60.71481 156.37288 35642 ft 464 kts 54°
2026-04-22 21:04 60.74798 156.48603 35628 ft 464 kts 54°
2026-04-22 21:05 60.78107 156.59942 35624 ft 464 kts 54°
2026-04-22 21:05 60.81407 156.71309 35633 ft 464 kts 54°
2026-04-22 21:06 60.84673 156.82616 35635 ft 464 kts 54°
2026-04-22 21:06 60.87953 156.94028 35629 ft 464 kts 55°
2026-04-22 21:07 60.91221 157.05458 35633 ft 465 kts 55°
2026-04-22 21:07 60.94486 157.16932 35631 ft 465 kts 55°
2026-04-22 21:08 60.97740 157.28428 35633 ft 465 kts 55°
2026-04-22 21:08 61.00964 157.39871 35650 ft 465 kts 55°
2026-04-22 21:09 61.04209 157.51450 35630 ft 467 kts 56°
2026-04-22 21:09 61.07451 157.63076 35628 ft 467 kts 56°
2026-04-22 21:10 61.10683 157.74730 35627 ft 467 kts 56°
2026-04-22 21:10 61.13883 157.86328 35627 ft 468 kts 56°
2026-04-22 21:11 61.17100 157.98044 35646 ft 468 kts 56°
2026-04-22 21:11 61.20322 158.09829 35620 ft 471 kts 56°
2026-04-22 21:12 61.23541 158.21683 35625 ft 472 kts 57°
2026-04-22 21:12 61.26737 158.33511 35618 ft 472 kts 57°
2026-04-22 21:13 61.29938 158.45422 35624 ft 472 kts 57°
2026-04-22 21:13 61.33133 158.57369 35648 ft 472 kts 57°
2026-04-22 21:14 61.36329 158.69378 35627 ft 475 kts 57°
2026-04-22 21:14 61.39520 158.81441 35622 ft 476 kts 57°
2026-04-22 21:15 61.42685 158.93470 35620 ft 476 kts 58°
2026-04-22 21:15 61.45860 159.05603 35626 ft 476 kts 58°
2026-04-22 21:16 61.49013 159.17716 35624 ft 476 kts 58°
2026-04-22 21:16 61.50598 159.23830 35792 ft 473 kts 58°
2026-04-22 21:16 61.52163 159.29880 36040 ft 471 kts 58°
2026-04-22 21:17 61.53700 159.35833 36200 ft 471 kts 58°
2026-04-22 21:17 61.55254 159.41877 36331 ft 471 kts 58°
2026-04-22 21:17 61.56806 159.47934 36458 ft 471 kts 58°
2026-04-22 21:17 61.58351 159.53981 36584 ft 472 kts 58°
2026-04-22 21:18 61.59900 159.60056 36708 ft 472 kts 58°
2026-04-22 21:18 61.61447 159.66142 36821 ft 472 kts 59°
2026-04-22 21:18 61.62990 159.72226 36976 ft 471 kts 59°
2026-04-22 21:18 61.64525 159.78297 37135 ft 471 kts 59°
2026-04-22 21:19 61.67593 159.90468 37129 ft 476 kts 59°
2026-04-22 21:19 61.70700 160.02871 37126 ft 480 kts 59°
2026-04-22 21:20 61.73801 160.15329 37126 ft 480 kts 60°
2026-04-22 21:20 61.76893 160.27818 37127 ft 480 kts 60°
2026-04-22 21:21 61.79955 160.40252 37154 ft 480 kts 60°
2026-04-22 21:21 61.83031 160.52811 37130 ft 482 kts 60°
2026-04-22 21:22 61.85950 160.65587 37127 ft 483 kts 64°
2026-04-22 21:22 61.88557 160.78732 37140 ft 484 kts 65°
2026-04-22 21:23 61.91147 160.91895 37133 ft 484 kts 65°
2026-04-22 21:23 61.93764 161.04966 37169 ft 484 kts 64°
2026-04-22 21:24 61.96412 161.18121 37135 ft 485 kts 64°
2026-04-22 21:24 61.99054 161.31317 37164 ft 485 kts 65°
2026-04-22 21:25 62.01681 161.44536 37147 ft 485 kts 65°
2026-04-22 21:25 62.04275 161.57684 37175 ft 485 kts 65°
2026-04-22 21:26 62.06875 161.70945 37173 ft 485 kts 65°
2026-04-22 21:26 62.09470 161.84270 37165 ft 486 kts 65°
2026-04-22 21:27 62.12053 161.97621 37163 ft 487 kts 65°
2026-04-22 21:27 62.14623 162.11003 37161 ft 487 kts 65°
2026-04-22 21:28 62.17163 162.24311 37161 ft 487 kts 66°
2026-04-22 21:28 62.19711 162.37748 37167 ft 487 kts 66°
2026-04-22 21:29 62.22244 162.51201 37159 ft 488 kts 66°
2026-04-22 21:29 62.24772 162.64716 37159 ft 488 kts 66°
2026-04-22 21:30 62.27271 162.78178 37162 ft 488 kts 66°
2026-04-22 21:30 62.29770 162.91730 37161 ft 488 kts 66°
2026-04-22 21:31 62.32257 163.05308 37163 ft 488 kts 67°
2026-04-22 21:31 62.34736 163.18934 37159 ft 489 kts 67°
2026-04-22 21:32 62.37185 163.32496 37159 ft 489 kts 67°
2026-04-22 21:32 62.39638 163.46176 37158 ft 489 kts 67°
2026-04-22 21:33 62.42079 163.59884 37160 ft 489 kts 68°
2026-04-22 21:33 62.44506 163.73607 37160 ft 489 kts 68°
2026-04-22 21:34 62.46914 163.87329 37155 ft 488 kts 68°
2026-04-22 21:34 62.49289 164.00961 37153 ft 488 kts 68°
2026-04-22 21:35 62.51671 164.14722 37158 ft 488 kts 68°
2026-04-22 21:35 62.54035 164.28485 37164 ft 488 kts 68°
2026-04-22 21:36 62.56376 164.42214 37163 ft 488 kts 68°
2026-04-22 21:36 62.58707 164.55994 37169 ft 487 kts 69°
2026-04-22 21:37 62.61035 164.69848 37170 ft 489 kts 69°
2026-04-22 21:37 62.63349 164.83724 37162 ft 488 kts 69°
2026-04-22 21:38 62.65650 164.97626 37170 ft 489 kts 69°
2026-04-22 21:38 62.67922 165.11461 37166 ft 488 kts 69°
2026-04-22 21:39 62.70186 165.25349 37163 ft 487 kts 69°
2026-04-22 21:39 62.72439 165.39284 37166 ft 487 kts 69°
2026-04-22 21:40 62.74674 165.53212 37166 ft 487 kts 70°
2026-04-22 21:40 62.76883 165.67072 37173 ft 488 kts 70°
2026-04-22 21:41 62.79098 165.81059 37175 ft 486 kts 69°
2026-04-22 21:41 62.81291 165.95033 37178 ft 487 kts 70°
2026-04-22 21:42 62.83473 166.09059 37173 ft 486 kts 70°
2026-04-22 21:42 62.85640 166.23083 37177 ft 487 kts 70°
2026-04-22 21:43 62.87782 166.37056 37180 ft 486 kts 70°
2026-04-22 21:43 62.89923 166.51123 37177 ft 487 kts 71°
2026-04-22 21:44 62.92050 166.65229 37173 ft 485 kts 71°
2026-04-22 21:44 62.94141 166.79209 37178 ft 486 kts 71°
2026-04-22 21:45 62.96236 166.93327 37177 ft 485 kts 71°
2026-04-22 21:45 62.98310 167.07411 37171 ft 485 kts 71°
2026-04-22 21:46 63.00385 167.21588 37171 ft 487 kts 71°
2026-04-22 21:46 63.02438 167.35781 37171 ft 487 kts 72°
2026-04-22 21:47 63.04467 167.49943 37175 ft 487 kts 71°
2026-04-22 21:47 63.06489 167.64162 37173 ft 486 kts 72°
2026-04-22 21:48 63.08502 167.78432 37175 ft 487 kts 72°
2026-04-22 21:48 63.10501 167.92681 37171 ft 486 kts 72°
2026-04-22 21:49 63.12489 168.07025 37189 ft 489 kts 72°
2026-04-22 21:49 63.14444 168.21272 37182 ft 487 kts 73°
2026-04-22 21:50 63.16402 168.35658 37184 ft 488 kts 72°
2026-04-22 21:50 63.18344 168.50041 37184 ft 487 kts 73°
2026-04-22 21:51 63.20259 168.64343 37186 ft 488 kts 73°
2026-04-22 21:52 63.23124 168.85982 37190 ft 489 kts 73°
2026-04-22 21:52 63.25017 169.00446 37182 ft 487 kts 73°
2026-04-22 21:53 63.26896 169.14932 37187 ft 489 kts 74°
2026-04-22 21:53 63.28748 169.29341 37183 ft 487 kts 74°
2026-04-22 21:54 63.30597 169.43855 37184 ft 489 kts 74°
2026-04-22 21:54 63.32431 169.58391 37187 ft 488 kts 74°
2026-04-22 21:55 63.34255 169.72989 37187 ft 489 kts 75°
2026-04-22 21:55 63.36059 169.87565 37187 ft 488 kts 75°
2026-04-22 21:56 63.37840 170.02081 37192 ft 489 kts 75°
2026-04-22 21:56 63.39618 170.16716 37193 ft 489 kts 75°
2026-04-22 21:57 63.41386 170.31409 37202 ft 490 kts 75°
2026-04-22 21:57 63.43135 170.46096 37206 ft 490 kts 75°
2026-04-22 21:58 63.44870 170.60804 37210 ft 490 kts 76°
2026-04-22 21:58 63.46580 170.75447 37212 ft 490 kts 76°
2026-04-22 21:59 63.48290 170.90236 37208 ft 492 kts 76°
2026-04-22 21:59 63.49986 171.05059 37209 ft 492 kts 76°
2026-04-22 22:00 63.51671 171.19934 37204 ft 492 kts 76°
2026-04-22 22:00 63.53339 171.34811 37205 ft 492 kts 76°
2026-04-22 22:01 63.54981 171.49603 37196 ft 492 kts 76°
2026-04-22 22:01 63.56615 171.64490 37195 ft 490 kts 77°
2026-04-22 22:02 63.58227 171.79321 37185 ft 488 kts 77°
2026-04-22 22:02 63.59822 171.94171 37186 ft 489 kts 77°
2026-04-22 22:03 63.61390 172.08916 37182 ft 489 kts 77°
2026-04-22 22:03 63.62953 172.23770 37180 ft 488 kts 77°
2026-04-22 22:04 63.64501 172.38653 37179 ft 489 kts 78°
2026-04-22 22:04 63.66034 172.53533 37179 ft 487 kts 78°
2026-04-22 22:05 63.67549 172.68418 37179 ft 488 kts 78°
2026-04-22 22:05 63.69046 172.83293 37181 ft 487 kts 78°
2026-04-22 22:06 63.70520 172.98112 37183 ft 487 kts 78°
2026-04-22 22:06 63.71987 173.13020 37179 ft 487 kts 78°
2026-04-22 22:07 63.73441 173.27967 37171 ft 487 kts 78°
2026-04-22 22:07 63.74877 173.42901 37181 ft 488 kts 78°
2026-04-22 22:08 63.76290 173.57767 37173 ft 487 kts 78°
2026-04-22 22:08 63.77696 173.72746 37182 ft 487 kts 79°
2026-04-22 22:09 63.79085 173.87732 37169 ft 487 kts 79°
2026-04-22 22:09 63.80461 174.02749 37170 ft 486 kts 79°
2026-04-22 22:10 63.81808 174.17634 37172 ft 487 kts 79°
2026-04-22 22:10 63.83151 174.32657 37173 ft 486 kts 79°
2026-04-22 22:11 63.84478 174.47692 37164 ft 487 kts 80°
2026-04-22 22:11 63.85788 174.62725 37158 ft 487 kts 80°
2026-04-22 22:12 63.87075 174.77692 37152 ft 487 kts 80°
2026-04-22 22:12 63.88356 174.92781 37158 ft 487 kts 80°
2026-04-22 22:13 63.89623 175.07883 37148 ft 486 kts 80°
2026-04-22 22:13 63.90869 175.22977 37154 ft 487 kts 81°
2026-04-22 22:14 63.92100 175.38090 37148 ft 487 kts 81°
2026-04-22 22:14 63.93306 175.53080 37141 ft 484 kts 81°
2026-04-22 22:15 63.94499 175.68143 37136 ft 485 kts 81°
2026-04-22 22:15 63.95678 175.83214 37136 ft 484 kts 81°
2026-04-22 22:16 63.96841 175.98303 37126 ft 483 kts 81°
2026-04-22 22:16 63.97987 176.13389 37122 ft 484 kts 81°
2026-04-22 22:17 63.99108 176.28340 37105 ft 481 kts 81°
2026-04-22 22:17 64.00217 176.43389 37110 ft 481 kts 81°
2026-04-22 22:18 64.01309 176.58405 37096 ft 482 kts 82°
2026-04-22 22:18 64.02387 176.73427 37098 ft 483 kts 82°
2026-04-22 22:19 64.03455 176.88566 37073 ft 484 kts 82°
2026-04-22 22:19 64.04492 177.03483 37097 ft 482 kts 82°
2026-04-22 22:20 64.05524 177.18583 37064 ft 481 kts 83°
2026-04-22 22:20 64.06538 177.33689 37077 ft 482 kts 83°
2026-04-22 22:21 64.07538 177.48790 37103 ft 481 kts 83°
2026-04-22 22:21 64.08525 177.63920 37089 ft 480 kts 83°
2026-04-22 22:22 64.09487 177.78924 37102 ft 478 kts 83°
2026-04-22 22:22 64.10430 177.93906 37083 ft 476 kts 83°
2026-04-22 22:23 64.11357 178.08898 37080 ft 475 kts 83°
2026-04-22 22:23 64.12269 178.23879 37068 ft 476 kts 84°
2026-04-22 22:24 64.13163 178.38875 37065 ft 476 kts 83°
2026-04-22 22:24 64.14039 178.53805 37042 ft 474 kts 83°
2026-04-22 22:25 64.14903 178.68766 37053 ft 474 kts 84°
2026-04-22 22:25 64.15747 178.83682 37052 ft 472 kts 84°
2026-04-22 22:26 64.16438 178.96131 37044 ft 473 kts 84°
2026-04-22 22:26 64.17393 179.13536 37025 ft 474 kts 84°
2026-04-22 22:27 64.18188 179.28500 37018 ft 472 kts 84°
2026-04-22 22:27 64.18967 179.43443 37008 ft 470 kts 85°
2026-04-22 22:28 64.19601 179.55855 37010 ft 472 kts 85°
2026-04-22 22:28 64.20473 179.73203 36987 ft 472 kts 84°
2026-04-22 22:29 64.21092 179.85774 36979 ft 472 kts 85°
2026-04-22 22:29 64.21811 -179.99344 37008 ft 472 kts 85°
2026-04-22 22:30 64.22517 -179.84375 36973 ft 470 kts 85°
2026-04-22 22:30 64.23204 -179.69483 36973 ft 469 kts 85°
2026-04-22 22:31 64.23877 -179.54550 37001 ft 469 kts 86°
2026-04-22 22:31 64.24530 -179.39731 37006 ft 470 kts 86°
2026-04-22 22:32 64.25174 -179.24785 36996 ft 470 kts 85°
2026-04-22 22:32 64.25801 -179.09831 36991 ft 470 kts 86°
2026-04-22 22:33 64.26413 -178.94855 36978 ft 471 kts 86°
2026-04-22 22:33 64.27012 -178.79887 36983 ft 470 kts 86°
2026-04-22 22:34 64.27591 -178.65028 36952 ft 470 kts 86°
2026-04-22 22:34 64.28157 -178.50060 36965 ft 469 kts 86°
2026-04-22 22:35 64.28709 -178.35086 36954 ft 468 kts 86°
2026-04-22 22:35 64.29242 -178.20143 36953 ft 469 kts 86°
2026-04-22 22:36 64.29759 -178.05282 36936 ft 469 kts 86°
2026-04-22 22:36 64.30265 -177.90298 36942 ft 469 kts 87°
2026-04-22 22:37 64.30754 -177.75308 36934 ft 469 kts 87°
2026-04-22 22:37 64.31228 -177.60307 36921 ft 469 kts 87°
2026-04-22 22:38 64.31685 -177.45414 36920 ft 469 kts 88°
2026-04-22 22:38 64.32129 -177.30424 36919 ft 469 kts 88°
2026-04-22 22:39 64.32558 -177.15422 36924 ft 469 kts 88°
2026-04-22 22:39 64.32971 -177.00445 36909 ft 468 kts 88°
2026-04-22 22:40 64.33366 -176.85527 36935 ft 470 kts 88°
2026-04-22 22:40 64.33749 -176.70457 36921 ft 472 kts 89°
2026-04-22 22:41 64.34118 -176.55311 36922 ft 473 kts 89°
2026-04-22 22:41 64.34473 -176.40163 36909 ft 473 kts 89°
2026-04-22 22:42 64.34813 -176.24992 36907 ft 473 kts 89°
2026-04-22 22:42 64.35135 -176.09952 36900 ft 472 kts 90°
2026-04-22 22:43 64.35442 -175.94820 36894 ft 472 kts 90°
2026-04-22 22:43 64.35734 -175.79695 36891 ft 471 kts 91°
2026-04-22 22:44 64.36007 -175.64710 36889 ft 470 kts 90°
2026-04-22 22:44 64.36265 -175.49642 36878 ft 470 kts 90°
2026-04-22 22:45 64.36507 -175.34544 36876 ft 471 kts 91°
2026-04-22 22:45 64.36737 -175.19418 36846 ft 471 kts 90°
2026-04-22 22:46 64.36951 -175.04277 36862 ft 473 kts 91°
2026-04-22 22:46 64.37148 -174.89190 36850 ft 473 kts 91°
2026-04-22 22:47 64.37332 -174.74009 36851 ft 473 kts 92°
2026-04-22 22:47 64.37500 -174.58804 36844 ft 472 kts 91°
2026-04-22 22:48 64.37652 -174.43635 36839 ft 472 kts 92°
2026-04-22 22:48 64.37747 -174.28598 36850 ft 471 kts 94°
2026-04-22 22:49 64.37776 -174.13517 36841 ft 470 kts 93°
2026-04-22 22:49 64.37792 -173.98449 36835 ft 469 kts 93°
2026-04-22 22:50 64.37802 -173.83373 36828 ft 469 kts 92°
2026-04-22 22:50 64.37801 -173.68381 36834 ft 470 kts 94°
2026-04-22 22:51 64.37787 -173.53268 36841 ft 470 kts 94°
2026-04-22 22:51 64.37757 -173.38213 36839 ft 469 kts 95°
2026-04-22 22:52 64.37709 -173.23219 36863 ft 468 kts 95°
2026-04-22 22:52 64.37668 -173.08171 36854 ft 468 kts 93°
2026-04-22 22:53 64.37640 -172.93236 36864 ft 467 kts 94°
2026-04-22 22:53 64.37595 -172.78236 36845 ft 466 kts 94°
2026-04-22 22:54 64.37525 -172.63253 36864 ft 468 kts 94°
2026-04-22 22:54 64.37437 -172.48208 36867 ft 468 kts 94°
2026-04-22 22:55 64.37337 -172.33300 36849 ft 467 kts 94°
2026-04-22 22:55 64.37159 -172.10789 36853 ft 468 kts 95°
2026-04-22 22:56 64.37018 -171.95778 36826 ft 467 kts 95°
2026-04-22 22:56 64.36868 -171.80766 36830 ft 467 kts 95°
2026-04-22 22:57 64.37226 -171.65815 36857 ft 470 kts 89°
2026-04-22 22:57 64.37787 -171.50746 36856 ft 471 kts 89°
2026-04-22 22:58 64.38369 -171.35673 36840 ft 470 kts 90°
2026-04-22 22:58 64.38929 -171.20610 36840 ft 470 kts 90°
2026-04-22 22:59 64.39141 -171.05650 36842 ft 466 kts 98°
2026-04-22 22:59 64.38618 -170.90754 36829 ft 466 kts 99°
2026-04-22 23:00 64.37968 -170.75920 36812 ft 464 kts 99°
2026-04-22 23:00 64.37289 -170.61033 36823 ft 465 kts 101°
2026-04-22 23:01 64.36613 -170.46313 36816 ft 465 kts 100°
2026-04-22 23:01 64.35927 -170.31465 36808 ft 466 kts 99°
2026-04-22 23:02 64.35224 -170.16524 36804 ft 468 kts 100°
2026-04-22 23:02 64.34505 -170.01629 36788 ft 466 kts 100°
2026-04-22 23:03 64.33771 -169.86754 36793 ft 467 kts 100°
2026-04-22 23:03 64.33023 -169.71883 36785 ft 466 kts 101°
2026-04-22 23:04 64.32262 -169.57111 36769 ft 467 kts 100°
2026-04-22 23:04 64.31479 -169.42214 36772 ft 469 kts 100°
2026-04-22 23:05 64.30678 -169.27266 36769 ft 470 kts 101°
2026-04-22 23:05 64.29864 -169.12344 36760 ft 470 kts 101°
2026-04-22 23:06 64.29040 -168.97524 36760 ft 469 kts 101°
2026-04-22 23:06 64.28195 -168.82620 36728 ft 469 kts 101°
2026-04-22 23:07 64.27335 -168.67717 36753 ft 470 kts 101°
2026-04-22 23:07 64.26458 -168.52803 36752 ft 471 kts 101°
2026-04-22 23:08 64.25571 -168.37984 36744 ft 471 kts 102°
2026-04-22 23:08 64.24663 -168.23074 36744 ft 471 kts 102°
2026-04-22 23:09 64.23741 -168.08185 36744 ft 471 kts 102°
2026-04-22 23:09 64.22803 -167.93293 36739 ft 471 kts 102°
2026-04-22 23:10 64.21857 -167.78528 36735 ft 471 kts 102°
2026-04-22 23:10 64.20889 -167.63663 36736 ft 470 kts 102°
2026-04-22 23:11 64.19906 -167.48813 36737 ft 470 kts 103°
2026-04-22 23:11 64.18907 -167.33959 36738 ft 470 kts 103°
2026-04-22 23:12 64.17902 -167.19248 36727 ft 471 kts 103°
2026-04-22 23:12 64.16869 -167.04358 36732 ft 473 kts 103°
2026-04-22 23:13 64.15819 -166.89450 36722 ft 473 kts 103°
2026-04-22 23:13 64.14756 -166.74575 36722 ft 473 kts 103°
2026-04-22 23:14 64.13676 -166.59691 36723 ft 473 kts 103°
2026-04-22 23:14 64.12605 -166.44937 36704 ft 473 kts 103°
2026-04-22 23:15 64.11529 -166.30028 36717 ft 475 kts 104°
2026-04-22 23:15 64.10436 -166.15100 36721 ft 476 kts 104°
2026-04-22 23:16 64.09357 -166.00261 36726 ft 476 kts 103°
2026-04-22 23:16 64.08305 -165.85321 36723 ft 476 kts 103°
2026-04-22 23:17 64.07239 -165.70390 36690 ft 476 kts 104°
2026-04-22 23:17 64.06150 -165.55455 36723 ft 478 kts 104°
2026-04-22 23:18 64.05040 -165.40515 36725 ft 478 kts 104°
2026-04-22 23:18 64.03918 -165.25634 36729 ft 478 kts 104°
2026-04-22 23:19 64.02776 -165.10694 36731 ft 478 kts 104°
2026-04-22 23:19 64.01618 -164.95748 36732 ft 478 kts 104°
2026-04-22 23:20 64.00445 -164.80831 36736 ft 479 kts 105°
2026-04-22 23:20 63.99261 -164.65986 36731 ft 479 kts 105°
2026-04-22 23:21 63.98055 -164.51065 36739 ft 479 kts 105°
2026-04-22 23:21 63.96834 -164.36146 36740 ft 479 kts 105°
2026-04-22 23:22 63.95596 -164.21231 36736 ft 479 kts 105°
2026-04-22 23:22 63.94355 -164.06462 36729 ft 479 kts 106°
2026-04-22 23:23 63.93088 -163.91600 36735 ft 478 kts 106°
2026-04-22 23:23 63.91807 -163.76757 36737 ft 478 kts 107°
2026-04-22 23:24 63.90511 -163.61936 36735 ft 478 kts 107°
2026-04-22 23:24 63.89210 -163.47230 36739 ft 478 kts 107°
2026-04-22 23:25 63.87885 -163.32450 36737 ft 478 kts 107°
2026-04-22 23:25 63.86545 -163.17670 36742 ft 478 kts 107°
2026-04-22 23:26 63.85191 -163.02925 36741 ft 478 kts 107°
2026-04-22 23:26 63.83832 -162.88295 36746 ft 478 kts 107°
2026-04-22 23:27 63.82447 -162.73562 36747 ft 478 kts 107°
2026-04-22 23:27 63.81050 -162.58860 36757 ft 477 kts 108°
2026-04-22 23:28 63.79640 -162.44204 36760 ft 477 kts 108°
2026-04-22 23:28 63.78222 -162.29645 36763 ft 477 kts 108°
2026-04-22 23:29 63.76781 -162.15026 36766 ft 476 kts 108°
2026-04-22 23:29 63.75328 -162.00429 36763 ft 476 kts 109°
2026-04-22 23:30 63.73860 -161.85844 36747 ft 476 kts 109°
2026-04-22 23:30 63.72388 -161.71357 36763 ft 476 kts 109°
2026-04-22 23:31 63.70888 -161.56804 36760 ft 476 kts 109°
2026-04-22 23:31 63.69376 -161.42269 36760 ft 476 kts 109°
2026-04-22 23:32 63.67848 -161.27744 36760 ft 476 kts 110°
2026-04-22 23:32 63.66320 -161.13358 36748 ft 476 kts 110°
2026-04-22 23:33 63.64765 -160.98878 36800 ft 476 kts 110°
2026-04-22 23:33 63.63196 -160.84417 36800 ft 476 kts 110°
2026-04-22 23:34 63.61614 -160.69992 36813 ft 476 kts 110°
2026-04-22 23:34 63.60017 -160.55575 36805 ft 475 kts 110°
2026-04-22 23:35 63.58420 -160.41299 36823 ft 475 kts 110°
2026-04-22 23:35 63.56789 -160.26871 36820 ft 478 kts 110°
2026-04-22 23:36 63.55139 -160.12414 36857 ft 478 kts 111°
2026-04-22 23:36 63.53477 -159.97998 36854 ft 478 kts 111°
2026-04-22 23:37 63.51810 -159.83673 36880 ft 478 kts 111°
2026-04-22 23:37 63.50120 -159.69289 36880 ft 478 kts 111°
2026-04-22 23:38 63.48413 -159.54908 36882 ft 480 kts 111°
2026-04-22 23:38 63.46679 -159.40449 36881 ft 481 kts 111°
2026-04-22 23:39 63.44943 -159.26100 36870 ft 481 kts 111°
2026-04-22 23:39 63.43182 -159.11674 36870 ft 481 kts 111°
2026-04-22 23:40 63.41406 -158.97268 36858 ft 481 kts 112°
2026-04-22 23:40 63.39613 -158.82865 36863 ft 482 kts 112°
2026-04-22 23:41 63.37806 -158.68477 36854 ft 483 kts 112°
2026-04-22 23:41 63.35993 -158.54175 36857 ft 482 kts 112°
2026-04-22 23:42 63.34155 -158.39810 36851 ft 482 kts 112°
2026-04-22 23:42 63.32302 -158.25455 36851 ft 482 kts 112°
2026-04-22 23:43 63.30432 -158.11116 36844 ft 483 kts 112°
2026-04-22 23:43 63.28558 -157.96870 36857 ft 484 kts 112°
2026-04-22 23:44 63.26656 -157.82523 36861 ft 485 kts 112°
2026-04-22 23:44 63.24733 -157.68149 36861 ft 486 kts 112°
2026-04-22 23:45 63.22794 -157.53780 36870 ft 486 kts 112°
2026-04-22 23:45 63.20853 -157.39527 36868 ft 487 kts 112°
2026-04-22 23:46 63.18878 -157.25163 36888 ft 488 kts 112°
2026-04-22 23:46 63.16889 -157.10799 36888 ft 488 kts 112°
2026-04-22 23:47 63.14888 -156.96483 36918 ft 487 kts 113°
2026-04-22 23:47 63.12869 -156.82163 36909 ft 487 kts 113°
2026-04-22 23:48 63.10853 -156.67975 36925 ft 488 kts 113°
2026-04-22 23:48 63.08796 -156.53645 36937 ft 490 kts 113°
2026-04-22 23:49 63.06722 -156.39304 36933 ft 490 kts 114°
2026-04-22 23:49 63.04636 -156.24989 36935 ft 490 kts 114°
2026-04-22 23:50 63.02552 -156.10818 36958 ft 490 kts 114°
2026-04-22 23:50 63.00437 -155.96544 36956 ft 490 kts 114°
2026-04-22 23:51 62.98311 -155.82321 36980 ft 490 kts 114°
2026-04-22 23:51 62.96170 -155.68119 36982 ft 489 kts 114°
2026-04-22 23:52 62.93315 -155.54771 36939 ft 479 kts 126°
2026-04-22 23:52 62.89924 -155.42333 36945 ft 478 kts 127°
2026-04-22 23:53 62.86414 -155.29956 36949 ft 479 kts 128°
2026-04-22 23:53 62.82890 -155.17591 36956 ft 479 kts 128°
2026-04-22 23:54 62.79366 -155.05214 36962 ft 479 kts 128°
2026-04-22 23:54 62.75858 -154.92936 36966 ft 479 kts 128°
2026-04-22 23:55 62.72322 -154.80620 36958 ft 479 kts 128°
2026-04-22 23:55 62.68783 -154.68362 36947 ft 478 kts 128°
2026-04-22 23:56 62.65230 -154.56133 36936 ft 478 kts 128°
2026-04-22 23:56 62.61671 -154.43945 36937 ft 478 kts 128°
2026-04-22 23:57 62.58118 -154.31840 36917 ft 478 kts 128°
2026-04-22 23:57 62.54539 -154.19713 36918 ft 478 kts 128°
2026-04-22 23:58 62.50951 -154.07619 36918 ft 477 kts 128°
2026-04-22 23:58 62.47357 -153.95566 36917 ft 476 kts 128°
2026-04-22 23:59 62.43753 -153.83550 36936 ft 476 kts 129°
2026-04-22 23:59 62.40163 -153.71649 36938 ft 476 kts 129°
2026-04-23 00:00 62.34725 -153.53752 36915 ft 476 kts 129°
2026-04-23 00:01 62.31083 -153.41826 36999 ft 478 kts 129°
2026-04-23 00:01 62.27459 -153.29962 37005 ft 477 kts 129°
2026-04-23 00:02 62.23793 -153.18077 37046 ft 477 kts 129°
2026-04-23 00:02 62.20107 -153.06274 37049 ft 477 kts 130°
2026-04-23 00:03 62.16421 -152.94467 37059 ft 477 kts 130°
2026-04-23 00:03 62.12723 -152.82618 37088 ft 481 kts 130°
2026-04-23 00:04 62.09026 -152.70819 37120 ft 481 kts 130°
2026-04-23 00:04 62.05278 -152.59004 37119 ft 480 kts 130°
2026-04-23 00:05 62.01524 -152.47249 37129 ft 480 kts 130°
2026-04-23 00:05 61.97759 -152.35491 37112 ft 480 kts 130°
2026-04-23 00:06 61.94006 -152.23828 37138 ft 482 kts 130°
2026-04-23 00:06 61.90208 -152.12069 37137 ft 482 kts 130°
2026-04-23 00:07 61.86409 -152.00359 37128 ft 482 kts 130°
2026-04-23 00:07 61.82594 -151.88676 37129 ft 482 kts 130°
2026-04-23 00:08 61.78802 -151.77120 37124 ft 482 kts 131°
2026-04-23 00:08 61.74946 -151.65451 37136 ft 485 kts 131°
2026-04-23 00:09 61.71072 -151.53778 37137 ft 485 kts 131°
2026-04-23 00:09 61.67196 -151.42144 37125 ft 485 kts 131°
2026-04-23 00:10 61.63357 -151.30674 37131 ft 481 kts 131°
2026-04-23 00:10 61.59494 -151.19198 37126 ft 482 kts 131°
2026-04-23 00:11 61.55602 -151.07715 37139 ft 488 kts 131°
2026-04-23 00:11 61.51663 -150.96131 37138 ft 487 kts 131°
2026-04-23 00:12 61.47726 -150.84574 37139 ft 487 kts 131°
2026-04-23 00:12 61.43798 -150.73130 37174 ft 488 kts 132°
2026-04-23 00:12 61.41816 -150.67400 37341 ft 488 kts 131°
2026-04-23 00:13 61.39821 -150.61643 37365 ft 491 kts 131°
2026-04-23 00:13 61.37816 -150.55865 37470 ft 492 kts 131°
2026-04-23 00:13 61.35806 -150.50077 37655 ft 491 kts 131°
2026-04-23 00:13 61.33808 -150.44331 37841 ft 491 kts 131°
2026-04-23 00:14 61.31804 -150.38587 37993 ft 491 kts 131°
2026-04-23 00:14 61.29800 -150.32855 38136 ft 490 kts 131°
2026-04-23 00:14 61.27809 -150.27178 38290 ft 490 kts 131°
2026-04-23 00:14 61.25954 -150.21902 38411 ft 490 kts 131°
2026-04-23 00:15 61.23939 -150.16183 38545 ft 490 kts 131°
2026-04-23 00:15 61.19892 -150.04745 38635 ft 490 kts 131°
2026-04-23 00:16 61.15825 -149.93975 38865 ft 484 kts 137°
2026-04-23 00:16 61.13535 -149.88706 39009 ft 482 kts 137°
2026-04-23 00:16 61.11272 -149.83602 39105 ft 482 kts 137°
2026-04-23 00:17 61.06754 -149.73558 39130 ft 485 kts 138°
2026-04-23 00:17 61.02149 -149.63383 39133 ft 485 kts 138°
2026-04-23 00:18 60.97544 -149.53236 39180 ft 487 kts 137°
2026-04-23 00:18 60.92908 -149.43045 39229 ft 487 kts 137°
2026-04-23 00:19 60.88298 -149.32952 39227 ft 487 kts 137°
2026-04-23 00:19 60.83681 -149.22898 39271 ft 487 kts 137°
2026-04-23 00:20 60.79006 -149.12767 39260 ft 487 kts 137°
2026-04-23 00:20 60.74363 -149.02739 39302 ft 485 kts 137°
2026-04-23 00:21 60.69741 -148.92819 39286 ft 484 kts 137°
2026-04-23 00:21 60.65101 -148.82886 39313 ft 483 kts 137°
2026-04-23 00:22 60.60459 -148.72998 39325 ft 483 kts 138°
2026-04-23 00:22 60.55827 -148.63190 39327 ft 483 kts 137°
2026-04-23 00:23 60.51197 -148.53434 39333 ft 484 kts 138°
2026-04-23 00:23 60.46555 -148.43660 39330 ft 484 kts 138°
2026-04-23 00:24 60.41882 -148.33876 39331 ft 484 kts 138°
2026-04-23 00:24 60.37182 -148.24096 39328 ft 484 kts 138°
2026-04-23 00:25 60.32490 -148.14371 39323 ft 485 kts 138°
2026-04-23 00:25 60.27764 -148.04616 39338 ft 487 kts 138°
2026-04-23 00:26 60.23060 -147.94945 39341 ft 486 kts 138°
2026-04-23 00:26 60.18319 -147.85243 39344 ft 486 kts 138°
2026-04-23 00:27 60.13572 -147.75571 39343 ft 486 kts 138°
2026-04-23 00:27 60.08813 -147.65920 39337 ft 487 kts 138°
2026-04-23 00:28 60.04067 -147.56336 39327 ft 489 kts 138°
2026-04-23 00:28 59.99277 -147.46700 39318 ft 487 kts 139°
2026-04-23 00:29 59.94505 -147.37136 39310 ft 485 kts 139°
2026-04-23 00:29 59.89741 -147.27638 39288 ft 484 kts 139°
2026-04-23 00:30 59.84987 -147.18209 39312 ft 486 kts 139°
2026-04-23 00:30 59.80191 -147.08731 39314 ft 487 kts 139°
2026-04-23 00:31 59.75377 -146.99253 39317 ft 487 kts 139°
2026-04-23 00:31 59.70566 -146.89823 39318 ft 487 kts 139°
2026-04-23 00:32 59.65745 -146.80416 39324 ft 487 kts 138°
2026-04-23 00:32 59.60940 -146.71081 39331 ft 489 kts 139°
2026-04-23 00:33 59.56085 -146.61686 39334 ft 489 kts 139°
2026-04-23 00:33 59.51224 -146.52319 39336 ft 489 kts 139°
2026-04-23 00:34 59.46358 -146.42985 39340 ft 489 kts 139°
2026-04-23 00:34 59.41627 -146.33503 39340 ft 492 kts 133°
2026-04-23 00:35 59.37223 -146.23205 39336 ft 493 kts 132°
2026-04-23 00:35 59.32874 -146.12782 39335 ft 493 kts 131°
2026-04-23 00:36 59.28531 -146.02398 39345 ft 493 kts 132°
2026-04-23 00:36 59.24168 -145.92044 39342 ft 493 kts 132°
2026-04-23 00:37 59.19816 -145.81784 39348 ft 495 kts 132°
2026-04-23 00:37 59.15416 -145.71461 39349 ft 494 kts 132°
2026-04-23 00:38 59.11030 -145.61210 39345 ft 492 kts 132°
2026-04-23 00:38 59.06642 -145.51001 39345 ft 492 kts 132°
2026-04-23 00:39 59.02281 -145.40900 39354 ft 491 kts 133°
2026-04-23 00:39 58.97882 -145.30754 39360 ft 491 kts 133°
2026-04-23 00:40 58.93475 -145.20635 39354 ft 491 kts 133°
2026-04-23 00:40 58.89057 -145.10533 39359 ft 491 kts 133°
2026-04-23 00:41 58.84669 -145.00544 39362 ft 491 kts 133°
2026-04-23 00:41 58.80233 -144.90492 39375 ft 493 kts 133°
2026-04-23 00:42 58.75783 -144.80448 39379 ft 493 kts 133°
2026-04-23 00:42 58.71323 -144.70424 39381 ft 493 kts 133°
2026-04-23 00:43 58.66886 -144.60494 39385 ft 493 kts 133°
2026-04-23 00:43 58.62409 -144.50523 39375 ft 493 kts 133°
2026-04-23 00:44 58.57912 -144.40547 39388 ft 495 kts 133°
2026-04-23 00:44 58.53401 -144.30579 39385 ft 495 kts 133°
2026-04-23 00:45 58.48921 -144.20722 39398 ft 495 kts 133°
2026-04-23 00:45 58.44396 -144.10811 39386 ft 495 kts 133°
2026-04-23 00:46 58.39854 -144.00908 39400 ft 497 kts 133°
2026-04-23 00:46 58.35296 -143.91008 39406 ft 497 kts 133°
2026-04-23 00:47 58.30755 -143.81186 39406 ft 497 kts 133°
2026-04-23 00:47 58.26182 -143.71338 39411 ft 497 kts 133°
2026-04-23 00:48 58.21596 -143.61507 39412 ft 498 kts 133°
2026-04-23 00:48 58.16993 -143.51679 39417 ft 498 kts 133°
2026-04-23 00:49 58.12412 -143.41937 39417 ft 498 kts 133°
2026-04-23 00:49 58.07795 -143.32161 39418 ft 498 kts 133°
2026-04-23 00:50 58.03167 -143.22404 39423 ft 498 kts 133°
2026-04-23 00:50 57.98534 -143.12680 39425 ft 498 kts 133°
2026-04-23 00:51 57.93932 -143.03055 39433 ft 497 kts 133°
2026-04-23 00:51 57.89302 -142.93413 39434 ft 497 kts 133°
2026-04-23 00:52 57.84662 -142.83790 39438 ft 497 kts 134°
2026-04-23 00:52 57.80011 -142.74187 39437 ft 497 kts 133°
2026-04-23 00:53 57.75352 -142.64605 39438 ft 497 kts 134°
2026-04-23 00:53 57.70716 -142.55110 39450 ft 497 kts 134°
2026-04-23 00:54 57.66043 -142.45578 39451 ft 497 kts 134°
2026-04-23 00:54 57.61363 -142.36072 39453 ft 498 kts 133°
2026-04-23 00:55 57.56669 -142.26577 39452 ft 498 kts 134°
2026-04-23 00:55 57.51993 -142.17156 39456 ft 498 kts 134°
2026-04-23 00:56 57.47284 -142.07704 39451 ft 498 kts 134°
2026-04-23 00:56 57.42562 -141.98269 39452 ft 498 kts 133°
2026-04-23 00:57 57.37835 -141.88863 39464 ft 498 kts 134°
2026-04-23 00:57 57.33132 -141.79539 39462 ft 499 kts 134°
2026-04-23 00:58 57.28392 -141.70180 39469 ft 499 kts 134°
2026-04-23 00:58 57.23644 -141.60842 39471 ft 498 kts 134°
2026-04-23 00:59 57.18892 -141.51538 39468 ft 498 kts 134°
2026-04-23 00:59 57.14165 -141.42317 39471 ft 498 kts 134°
2026-04-23 01:00 57.09397 -141.33053 39467 ft 498 kts 134°
2026-04-23 01:00 57.04625 -141.23818 39477 ft 498 kts 134°
2026-04-23 01:01 56.99846 -141.14608 39471 ft 498 kts 134°
2026-04-23 01:01 56.95056 -141.05413 39481 ft 498 kts 134°
2026-04-23 01:02 56.90296 -140.96311 39479 ft 498 kts 134°
2026-04-23 01:02 56.85500 -140.87177 39482 ft 498 kts 134°
2026-04-23 01:03 56.80692 -140.78061 39481 ft 497 kts 134°
2026-04-23 01:03 56.76715 -140.70545 39482 ft 496 kts 134°
2026-04-23 01:04 56.71140 -140.60044 39485 ft 495 kts 134°
2026-04-23 01:04 56.64758 -140.48082 39489 ft 495 kts 134°
2026-04-23 01:05 56.59166 -140.37657 39489 ft 495 kts 134°
2026-04-23 01:05 56.54359 -140.28730 39493 ft 495 kts 134°
2026-04-23 01:06 56.50355 -140.21323 39492 ft 495 kts 135°
2026-04-23 01:06 56.45540 -140.12444 39495 ft 495 kts 135°
2026-04-23 01:07 56.39895 -140.02080 39494 ft 495 kts 135°
2026-04-23 01:07 56.35092 -139.93298 39496 ft 495 kts 135°
2026-04-23 01:08 56.31042 -139.85918 39500 ft 495 kts 135°
2026-04-23 01:08 56.25407 -139.75690 39500 ft 495 kts 135°
2026-04-23 01:09 56.21373 -139.68395 39503 ft 495 kts 135°
2026-04-23 01:09 56.16518 -139.59649 39503 ft 495 kts 135°
2026-04-23 01:10 56.11655 -139.50919 39505 ft 495 kts 135°
2026-04-23 01:10 56.06819 -139.42270 39506 ft 495 kts 135°
2026-04-23 01:11 56.01944 -139.33585 39507 ft 495 kts 135°
2026-04-23 01:11 55.97062 -139.24921 39509 ft 495 kts 135°
2026-04-23 01:12 55.92168 -139.16268 39506 ft 496 kts 135°
2026-04-23 01:12 55.87264 -139.07628 39511 ft 496 kts 135°
2026-04-23 01:13 55.82390 -138.99073 39511 ft 496 kts 135°
2026-04-23 01:13 55.77469 -138.90471 39511 ft 496 kts 135°
2026-04-23 01:14 55.72543 -138.81890 39513 ft 497 kts 135°
2026-04-23 01:14 55.67606 -138.73322 39510 ft 497 kts 135°
2026-04-23 01:15 55.62694 -138.64834 39510 ft 497 kts 135°
2026-04-23 01:15 55.57757 -138.56332 39512 ft 494 kts 135°
2026-04-23 01:16 55.52830 -138.47873 39511 ft 494 kts 135°
2026-04-23 01:16 55.47892 -138.39427 39514 ft 494 kts 135°
2026-04-23 01:17 55.42948 -138.31003 39514 ft 494 kts 135°
2026-04-23 01:17 55.38033 -138.22661 39519 ft 494 kts 135°
2026-04-23 01:18 55.33074 -138.14275 39519 ft 495 kts 135°
2026-04-23 01:18 55.28108 -138.05907 39519 ft 495 kts 135°
2026-04-23 01:19 55.23134 -137.97556 39520 ft 495 kts 135°
2026-04-23 01:19 55.18193 -137.89290 39519 ft 495 kts 135°
2026-04-23 01:20 55.13207 -137.80980 39525 ft 496 kts 135°
2026-04-23 01:20 55.08211 -137.72684 39523 ft 496 kts 135°
2026-04-23 01:21 55.03205 -137.64399 39523 ft 496 kts 135°
2026-04-23 01:21 54.98225 -137.56189 39520 ft 496 kts 135°
2026-04-23 01:22 54.93206 -137.47944 39524 ft 496 kts 136°
2026-04-23 01:22 54.88185 -137.39725 39525 ft 496 kts 136°
2026-04-23 01:23 54.83154 -137.31520 39525 ft 496 kts 136°
2026-04-23 01:23 54.78155 -137.23394 39525 ft 496 kts 136°
2026-04-23 01:24 54.73113 -137.15231 39525 ft 496 kts 136°
2026-04-23 01:24 54.68068 -137.07090 39525 ft 496 kts 136°
2026-04-23 01:25 54.63012 -136.98959 39524 ft 496 kts 136°
2026-04-23 01:25 54.57957 -136.90861 39522 ft 496 kts 136°
2026-04-23 01:26 54.52916 -136.82814 39523 ft 497 kts 136°
2026-04-23 01:26 54.47845 -136.74747 39521 ft 497 kts 136°
2026-04-23 01:27 54.42758 -136.66688 39524 ft 497 kts 136°
2026-04-23 01:27 54.37685 -136.58674 39521 ft 495 kts 136°
2026-04-23 01:28 54.32635 -136.50722 39526 ft 495 kts 136°
2026-04-23 01:28 54.27590 -136.42806 39525 ft 495 kts 136°
2026-04-23 01:29 54.22510 -136.34864 39522 ft 495 kts 136°
2026-04-23 01:29 54.17417 -136.26931 39517 ft 495 kts 136°
2026-04-23 01:30 54.12328 -136.19030 39521 ft 495 kts 136°
2026-04-23 01:30 54.07223 -136.11133 39518 ft 496 kts 136°
2026-04-23 01:31 54.02149 -136.03311 39517 ft 496 kts 136°
2026-04-23 01:31 53.96724 -135.96059 39520 ft 497 kts 143°
2026-04-23 01:32 53.91096 -135.89245 39521 ft 497 kts 143°
2026-04-23 01:32 53.85431 -135.82510 39519 ft 498 kts 144°
2026-04-23 01:33 53.79797 -135.75822 39513 ft 498 kts 144°
2026-04-23 01:33 53.74136 -135.69107 39513 ft 498 kts 144°
2026-04-23 01:34 53.68463 -135.62392 39521 ft 498 kts 144°
2026-04-23 01:34 53.62776 -135.55682 39515 ft 499 kts 144°
2026-04-23 01:35 53.57088 -135.48993 39513 ft 499 kts 144°
2026-04-23 01:35 53.51431 -135.42364 39514 ft 499 kts 144°
2026-04-23 01:36 53.45734 -135.35712 39512 ft 499 kts 144°
2026-04-23 01:36 53.40021 -135.29062 39512 ft 500 kts 144°
2026-04-23 01:37 53.34455 -135.22604 39514 ft 500 kts 144°
2026-04-23 01:37 53.28731 -135.15985 39511 ft 500 kts 144°
2026-04-23 01:38 53.23052 -135.09440 39511 ft 500 kts 144°
2026-04-23 01:38 53.17310 -135.02844 39502 ft 501 kts 144°
2026-04-23 01:39 53.11562 -134.96262 39499 ft 501 kts 144°
2026-04-23 01:39 53.05810 -134.89699 39511 ft 501 kts 144°
2026-04-23 01:40 53.00086 -134.83188 39503 ft 502 kts 144°
2026-04-23 01:40 52.94308 -134.76649 39507 ft 503 kts 144°
2026-04-23 01:41 52.88529 -134.70117 39505 ft 503 kts 144°
2026-04-23 01:41 52.82739 -134.63595 39494 ft 503 kts 144°
2026-04-23 01:42 52.76953 -134.57101 39504 ft 503 kts 144°
2026-04-23 01:42 52.71209 -134.50677 39503 ft 502 kts 144°
2026-04-23 01:43 52.65433 -134.44238 39497 ft 501 kts 144°
2026-04-23 01:43 52.59653 -134.37815 39497 ft 501 kts 144°
2026-04-23 01:44 52.53864 -134.31402 39490 ft 502 kts 144°
2026-04-23 01:44 52.48065 -134.24999 39492 ft 503 kts 145°
2026-04-23 01:45 52.42300 -134.18655 39498 ft 503 kts 145°
2026-04-23 01:45 52.36484 -134.12275 39480 ft 503 kts 145°
2026-04-23 01:46 52.30667 -134.05915 39481 ft 504 kts 145°
2026-04-23 01:46 52.24838 -133.99561 39483 ft 504 kts 145°
2026-04-23 01:47 52.19003 -133.93222 39478 ft 504 kts 145°
2026-04-23 01:47 52.13207 -133.86945 39485 ft 505 kts 145°
2026-04-23 01:48 52.07342 -133.80613 39484 ft 506 kts 145°
2026-04-23 01:48 52.01470 -133.74295 39474 ft 506 kts 145°
2026-04-23 01:49 51.95635 -133.68029 39475 ft 506 kts 145°
2026-04-23 01:49 51.89781 -133.61770 39470 ft 504 kts 145°
2026-04-23 01:50 51.83911 -133.55515 39478 ft 505 kts 145°
2026-04-23 01:50 51.78032 -133.49265 39476 ft 505 kts 145°
2026-04-23 01:51 51.72158 -133.43041 39474 ft 506 kts 146°
2026-04-23 01:51 51.66296 -133.36848 39477 ft 508 kts 146°
2026-04-23 01:52 51.60390 -133.30629 39469 ft 508 kts 146°
2026-04-23 01:52 51.54482 -133.24431 39461 ft 507 kts 146°
2026-04-23 01:53 51.48565 -133.18243 39464 ft 507 kts 146°
2026-04-23 01:53 51.42667 -133.12092 39455 ft 507 kts 146°
2026-04-23 01:54 51.36777 -133.05971 39467 ft 509 kts 146°
2026-04-23 01:54 51.30844 -132.99819 39455 ft 508 kts 146°
2026-04-23 01:55 51.24900 -132.93680 39446 ft 509 kts 146°
2026-04-23 01:55 51.18938 -132.87544 39455 ft 510 kts 146°
2026-04-23 01:56 51.13021 -132.81468 39454 ft 509 kts 146°
2026-04-23 01:56 51.07078 -132.75383 39449 ft 508 kts 147°
2026-04-23 01:57 51.01137 -132.69321 39442 ft 508 kts 147°
2026-04-23 01:57 50.95178 -132.63273 39450 ft 508 kts 147°
2026-04-23 01:58 50.89208 -132.57233 39438 ft 509 kts 147°
2026-04-23 01:58 50.83277 -132.51250 39437 ft 509 kts 147°
2026-04-23 01:59 50.77288 -132.45227 39444 ft 510 kts 147°
2026-04-23 01:59 50.71307 -132.39229 39441 ft 510 kts 147°
2026-04-23 02:00 50.65309 -132.33233 39443 ft 511 kts 147°
2026-04-23 02:00 50.59383 -132.27327 39441 ft 509 kts 147°
2026-04-23 02:01 50.53396 -132.21378 39436 ft 510 kts 147°
2026-04-23 02:01 50.47392 -132.15430 39432 ft 509 kts 147°
2026-04-23 02:02 50.41411 -132.09524 39432 ft 507 kts 147°
2026-04-23 02:02 50.35460 -132.03666 39441 ft 509 kts 147°
2026-04-23 02:03 50.29462 -131.97782 39423 ft 509 kts 147°
2026-04-23 02:03 50.23461 -131.91912 39428 ft 509 kts 147°
2026-04-23 02:04 50.17436 -131.86076 39430 ft 510 kts 149°
2026-04-23 02:04 50.11297 -131.80538 39423 ft 510 kts 150°
2026-04-23 02:05 50.05164 -131.75119 39416 ft 510 kts 150°
2026-04-23 02:05 49.99002 -131.69646 39422 ft 510 kts 150°
2026-04-23 02:06 49.92829 -131.64193 39416 ft 511 kts 150°
2026-04-23 02:06 49.86633 -131.58739 39406 ft 512 kts 150°
2026-04-23 02:07 49.80476 -131.53329 39402 ft 511 kts 150°
2026-04-23 02:07 49.74282 -131.47905 39407 ft 511 kts 150°
2026-04-23 02:08 49.68086 -131.42495 39409 ft 511 kts 150°
2026-04-23 02:08 49.61890 -131.37100 39401 ft 512 kts 150°
2026-04-23 02:09 49.55686 -131.31714 39400 ft 512 kts 151°
2026-04-23 02:09 49.49475 -131.26337 39399 ft 513 kts 151°
2026-04-23 02:10 49.43292 -131.21000 39389 ft 514 kts 151°
2026-04-23 02:10 49.37050 -131.15628 39386 ft 514 kts 151°
2026-04-23 02:11 49.30817 -131.10279 39391 ft 513 kts 151°
2026-04-23 02:11 49.24578 -131.04941 39389 ft 514 kts 151°
2026-04-23 02:12 49.18377 -130.99651 39380 ft 513 kts 151°
2026-04-23 02:12 49.12139 -130.94342 39370 ft 512 kts 152°
2026-04-23 02:13 49.05910 -130.89061 39380 ft 513 kts 152°
2026-04-23 02:13 48.99676 -130.83790 39381 ft 512 kts 152°
2026-04-23 02:14 48.93491 -130.78576 39364 ft 512 kts 152°
2026-04-23 02:14 48.87250 -130.73337 39361 ft 512 kts 152°
2026-04-23 02:15 48.77899 -130.65502 39370 ft 512 kts 152°
2026-04-23 02:16 48.71694 -130.60327 39365 ft 513 kts 152°
2026-04-23 02:16 48.65454 -130.55128 39362 ft 511 kts 152°
2026-04-23 02:17 48.59221 -130.49951 39369 ft 512 kts 153°
2026-04-23 02:17 48.52972 -130.44784 39365 ft 512 kts 152°
2026-04-23 02:18 48.46746 -130.39645 39369 ft 511 kts 152°
2026-04-23 02:18 48.40528 -130.34531 39362 ft 511 kts 152°
2026-04-23 02:19 48.34292 -130.29416 39359 ft 510 kts 153°
2026-04-23 02:19 48.28051 -130.24315 39355 ft 511 kts 152°
2026-04-23 02:20 48.21801 -130.19217 39364 ft 511 kts 152°
2026-04-23 02:20 48.15586 -130.14169 39354 ft 512 kts 152°
2026-04-23 02:21 48.09329 -130.09084 39336 ft 512 kts 152°
2026-04-23 02:21 48.03061 -130.04004 39344 ft 512 kts 152°
2026-04-23 02:22 47.96795 -129.98950 39356 ft 512 kts 152°
2026-04-23 02:22 47.90525 -129.93912 39355 ft 512 kts 152°
2026-04-23 02:23 47.84308 -129.88926 39345 ft 512 kts 152°
2026-04-23 02:23 47.78037 -129.83909 39338 ft 512 kts 152°
2026-04-23 02:24 47.71752 -129.78897 39338 ft 513 kts 152°
2026-04-23 02:24 47.65500 -129.73926 39343 ft 513 kts 152°
2026-04-23 02:25 47.59210 -129.68918 39339 ft 513 kts 152°
2026-04-23 02:25 47.52923 -129.63918 39332 ft 513 kts 152°
2026-04-23 02:26 47.46641 -129.58944 39330 ft 512 kts 153°
2026-04-23 02:26 47.40366 -129.53993 39334 ft 511 kts 153°
2026-04-23 02:27 47.34130 -129.49081 39330 ft 511 kts 153°
2026-04-23 02:27 47.27852 -129.44150 39325 ft 512 kts 153°
2026-04-23 02:28 47.21562 -129.39222 39328 ft 511 kts 152°
2026-04-23 02:28 47.15293 -129.34325 39325 ft 510 kts 153°
2026-04-23 02:29 47.09061 -129.29475 39316 ft 510 kts 153°
2026-04-23 02:29 47.02793 -129.24604 39322 ft 510 kts 153°
2026-04-23 02:30 46.96505 -129.19736 39322 ft 511 kts 153°
2026-04-23 02:30 46.90213 -129.14877 39316 ft 512 kts 153°
2026-04-23 02:31 46.83969 -129.10063 39316 ft 512 kts 153°
2026-04-23 02:31 46.77663 -129.05214 39307 ft 512 kts 153°
2026-04-23 02:32 46.71363 -129.00386 39315 ft 512 kts 153°
2026-04-23 02:32 46.65050 -128.95560 39312 ft 512 kts 153°
2026-04-23 02:33 46.58793 -128.90790 39308 ft 511 kts 153°
2026-04-23 02:33 46.52496 -128.86005 39319 ft 511 kts 153°
2026-04-23 02:34 46.46208 -128.81235 39315 ft 510 kts 153°
2026-04-23 02:34 46.39911 -128.76470 39308 ft 510 kts 154°
2026-04-23 02:35 46.33608 -128.71711 39298 ft 511 kts 153°
2026-04-23 02:35 46.27350 -128.67001 39304 ft 511 kts 154°
2026-04-23 02:36 46.21043 -128.62270 39301 ft 510 kts 154°
2026-04-23 02:36 46.14743 -128.57560 39303 ft 510 kts 154°
2026-04-23 02:37 46.08443 -128.52861 39298 ft 509 kts 154°
2026-04-23 02:37 46.02197 -128.48212 39294 ft 509 kts 154°
2026-04-23 02:38 45.95907 -128.43535 39293 ft 509 kts 154°
2026-04-23 02:38 45.89604 -128.38861 39295 ft 510 kts 154°
2026-04-23 02:39 45.83303 -128.34200 39293 ft 509 kts 154°
2026-04-23 02:39 45.77041 -128.29588 39298 ft 509 kts 154°
2026-04-23 02:40 45.70748 -128.24968 39294 ft 508 kts 154°
2026-04-23 02:40 45.64455 -128.20352 39291 ft 508 kts 154°
2026-04-23 02:41 45.58172 -128.15754 39298 ft 507 kts 154°
2026-04-23 02:41 45.51888 -128.11169 39300 ft 507 kts 154°
2026-04-23 02:42 45.45638 -128.06623 39294 ft 508 kts 154°
2026-04-23 02:42 45.39333 -128.02048 39294 ft 509 kts 154°
2026-04-23 02:43 45.33021 -127.97474 39295 ft 509 kts 154°
2026-04-23 02:43 45.26709 -127.92914 39292 ft 509 kts 154°
2026-04-23 02:44 45.20445 -127.88399 39292 ft 508 kts 154°
2026-04-23 02:44 45.14293 -127.83975 39292 ft 508 kts 154°
2026-04-23 02:45 45.07988 -127.79454 39297 ft 508 kts 154°
2026-04-23 02:45 45.01679 -127.74944 39292 ft 508 kts 154°
2026-04-23 02:46 44.95402 -127.70470 39295 ft 508 kts 155°
2026-04-23 02:46 44.89090 -127.65980 39293 ft 508 kts 154°
2026-04-23 02:47 44.82782 -127.61497 39296 ft 507 kts 155°
2026-04-23 02:47 44.76475 -127.57030 39295 ft 507 kts 154°
2026-04-23 02:48 44.70171 -127.52576 39293 ft 507 kts 155°
2026-04-23 02:48 44.63918 -127.48170 39306 ft 506 kts 155°
2026-04-23 02:49 44.57626 -127.43747 39296 ft 506 kts 155°
2026-04-23 02:49 44.51321 -127.39327 39298 ft 506 kts 155°
2026-04-23 02:50 44.45018 -127.34917 39298 ft 506 kts 155°
2026-04-23 02:50 44.38750 -127.30543 39432 ft 507 kts 155°
2026-04-23 02:50 44.35593 -127.28344 39581 ft 506 kts 155°
2026-04-23 02:51 44.32447 -127.26154 39743 ft 505 kts 155°
2026-04-23 02:51 44.26142 -127.21775 39795 ft 506 kts 155°
2026-04-23 02:52 44.19838 -127.17408 39799 ft 506 kts 155°
2026-04-23 02:52 44.13530 -127.13048 39798 ft 506 kts 155°
2026-04-23 02:53 44.07275 -127.08735 39796 ft 506 kts 155°
2026-04-23 02:53 44.00966 -127.04395 39795 ft 506 kts 155°
2026-04-23 02:54 43.94640 -127.00054 39799 ft 506 kts 155°
2026-04-23 02:54 43.88379 -126.95767 39798 ft 506 kts 155°
2026-04-23 02:55 43.82077 -126.91463 39798 ft 506 kts 155°
2026-04-23 02:55 43.75764 -126.87162 39796 ft 506 kts 155°
2026-04-23 02:56 43.69433 -126.82858 39800 ft 507 kts 155°
2026-04-23 02:56 43.63107 -126.78568 39796 ft 507 kts 155°
2026-04-23 02:57 43.56774 -126.74284 39798 ft 507 kts 155°
2026-04-23 02:57 43.50494 -126.70045 39800 ft 507 kts 156°
2026-04-23 02:58 43.44149 -126.65773 39796 ft 507 kts 156°
2026-04-23 02:58 43.37801 -126.61527 39801 ft 507 kts 156°
2026-04-23 02:59 43.31451 -126.57307 39796 ft 507 kts 156°
2026-04-23 02:59 43.25092 -126.53089 39800 ft 507 kts 156°
2026-04-23 03:00 43.18776 -126.48907 39789 ft 508 kts 156°
2026-04-23 03:00 43.12406 -126.44698 39796 ft 508 kts 156°
2026-04-23 03:01 43.06043 -126.40502 39799 ft 508 kts 156°
2026-04-23 03:01 42.99671 -126.36311 39797 ft 508 kts 156°
2026-04-23 03:02 42.93342 -126.32157 39796 ft 508 kts 156°
2026-04-23 03:02 42.86973 -126.27988 39794 ft 508 kts 156°
2026-04-23 03:03 42.80586 -126.23816 39794 ft 509 kts 156°
2026-04-23 03:03 42.74222 -126.19666 39794 ft 509 kts 156°
2026-04-23 03:04 42.68174 -126.14569 39798 ft 511 kts 147°
2026-04-23 03:04 42.62425 -126.08964 39787 ft 512 kts 146°
2026-04-23 03:05 42.56680 -126.03252 39790 ft 512 kts 146°
2026-04-23 03:05 42.50919 -125.97555 39793 ft 513 kts 146°
2026-04-23 03:06 42.45145 -125.91883 39791 ft 513 kts 146°
2026-04-23 03:06 42.39395 -125.86259 39791 ft 513 kts 146°
2026-04-23 03:07 42.33611 -125.80614 39796 ft 513 kts 146°
2026-04-23 03:07 42.27816 -125.74971 39799 ft 513 kts 146°
2026-04-23 03:08 42.22048 -125.69367 39798 ft 514 kts 146°
2026-04-23 03:08 42.16263 -125.63759 39803 ft 514 kts 146°
2026-04-23 03:09 42.10454 -125.58140 39802 ft 514 kts 146°
2026-04-23 03:09 42.04636 -125.52527 39798 ft 515 kts 146°
2026-04-23 03:10 41.98815 -125.46922 39800 ft 515 kts 146°
2026-04-23 03:10 41.92994 -125.41331 39802 ft 515 kts 147°
2026-04-23 03:11 41.87202 -125.35781 39795 ft 516 kts 147°
2026-04-23 03:11 41.81356 -125.30191 39797 ft 516 kts 147°
2026-04-23 03:12 41.75508 -125.24612 39808 ft 516 kts 147°
2026-04-23 03:12 41.69654 -125.19041 39804 ft 517 kts 147°
2026-04-23 03:13 41.63833 -125.13513 39804 ft 517 kts 147°
2026-04-23 03:13 41.57964 -125.07952 39800 ft 518 kts 147°
2026-04-23 03:14 41.52078 -125.02389 39799 ft 518 kts 147°
2026-04-23 03:14 41.46188 -124.96833 39798 ft 518 kts 147°
2026-04-23 03:15 41.40295 -124.91288 39799 ft 519 kts 147°
2026-04-23 03:15 41.34435 -124.85786 39802 ft 519 kts 147°
2026-04-23 03:16 41.28534 -124.80258 39801 ft 519 kts 147°
2026-04-23 03:16 41.19678 -124.71984 39797 ft 519 kts 147°
2026-04-23 03:17 41.13796 -124.66506 39796 ft 519 kts 147°
2026-04-23 03:17 41.07882 -124.61009 39796 ft 519 kts 147°
2026-04-23 03:18 41.01958 -124.55515 39793 ft 519 kts 147°
2026-04-23 03:18 40.96041 -124.50039 39793 ft 519 kts 147°
2026-04-23 03:19 40.90115 -124.44569 39833 ft 520 kts 147°
2026-04-23 03:19 40.87203 -124.41885 39963 ft 519 kts 147°
2026-04-23 03:19 40.84247 -124.39163 40084 ft 519 kts 148°
2026-04-23 03:20 40.81276 -124.36430 40208 ft 518 kts 148°
2026-04-23 03:20 40.78311 -124.33706 40278 ft 519 kts 148°
2026-04-23 03:20 40.72466 -124.28346 40284 ft 518 kts 148°
2026-04-23 03:21 40.66429 -124.23192 40280 ft 515 kts 156°
2026-04-23 03:21 40.60035 -124.19083 40275 ft 514 kts 158°
2026-04-23 03:22 40.53537 -124.15146 40274 ft 514 kts 159°
2026-04-23 03:22 40.47033 -124.11243 40276 ft 514 kts 159°
2026-04-23 03:23 40.40529 -124.07328 40278 ft 514 kts 159°
2026-04-23 03:23 40.34094 -124.03448 40275 ft 515 kts 159°
2026-04-23 03:24 40.27572 -123.99521 40273 ft 515 kts 159°
2026-04-23 03:24 40.21039 -123.95596 40266 ft 515 kts 159°
2026-04-23 03:25 40.14531 -123.91695 40262 ft 515 kts 159°
2026-04-23 03:25 40.08020 -123.87801 40258 ft 515 kts 159°
2026-04-23 03:26 40.01565 -123.83947 40254 ft 515 kts 159°
2026-04-23 03:26 39.95126 -123.80112 40249 ft 516 kts 159°
2026-04-23 03:27 39.88620 -123.76244 40240 ft 516 kts 159°
2026-04-23 03:27 39.82198 -123.72436 40228 ft 516 kts 159°
2026-04-23 03:28 39.75659 -123.68565 40212 ft 516 kts 160°
2026-04-23 03:28 39.69115 -123.64700 40230 ft 516 kts 160°
2026-04-23 03:29 39.62576 -123.60847 40231 ft 517 kts 160°
2026-04-23 03:29 39.56066 -123.57019 40234 ft 517 kts 160°
2026-04-23 03:30 39.49516 -123.53173 40236 ft 517 kts 160°
2026-04-23 03:30 39.42974 -123.49339 40231 ft 516 kts 160°
2026-04-23 03:31 39.36514 -123.45563 40230 ft 517 kts 160°
2026-04-23 03:31 39.29969 -123.41747 40232 ft 517 kts 160°
2026-04-23 03:32 39.23441 -123.37948 40230 ft 518 kts 160°
2026-04-23 03:32 39.16876 -123.34133 40229 ft 518 kts 160°
2026-04-23 03:33 39.10308 -123.30323 40222 ft 518 kts 161°
2026-04-23 03:33 39.03936 -123.25938 40233 ft 526 kts 148°
2026-04-23 03:34 38.98119 -123.20302 40228 ft 527 kts 147°
2026-04-23 03:34 38.92307 -123.14570 40228 ft 527 kts 147°
2026-04-23 03:35 38.86482 -123.08832 40216 ft 528 kts 147°
2026-04-23 03:35 38.80670 -123.03114 40194 ft 526 kts 147°
2026-04-23 03:36 38.74911 -122.97464 40206 ft 528 kts 147°
2026-04-23 03:36 38.69072 -122.91747 40203 ft 529 kts 147°
2026-04-23 03:37 38.64326 -122.87108 40219 ft 529 kts 147°
2026-04-23 03:37 38.58470 -122.81396 40220 ft 529 kts 147°
2026-04-23 03:38 38.52272 -122.75362 40182 ft 530 kts 148°
2026-04-23 03:38 38.46411 -122.69670 40204 ft 530 kts 148°
2026-04-23 03:39 38.41779 -122.65179 40213 ft 530 kts 148°
2026-04-23 03:39 38.34949 -122.58570 40211 ft 530 kts 148°
2026-04-23 03:40 38.29447 -122.53258 40221 ft 530 kts 148°
2026-04-23 03:40 38.24560 -122.48549 40217 ft 531 kts 148°
2026-04-23 03:41 38.18671 -122.42884 40217 ft 531 kts 149°
2026-04-23 03:41 38.12773 -122.37224 40210 ft 531 kts 149°
2026-04-23 03:42 38.06877 -122.31577 40208 ft 531 kts 149°
2026-04-23 03:42 38.01062 -122.26018 40213 ft 531 kts 149°
2026-04-23 03:43 37.95202 -122.20428 40202 ft 531 kts 149°
2026-04-23 03:43 37.89319 -122.14828 40203 ft 531 kts 149°
2026-04-23 03:44 37.83363 -122.09170 40214 ft 532 kts 149°
2026-04-23 03:44 37.77449 -122.03563 40206 ft 532 kts 149°
2026-04-23 03:45 37.71566 -121.97998 40201 ft 532 kts 150°
2026-04-23 03:45 37.65651 -121.92414 40205 ft 532 kts 150°
2026-04-23 03:46 37.59707 -121.86808 40213 ft 533 kts 150°
2026-04-23 03:46 37.53776 -121.81231 40203 ft 532 kts 150°
2026-04-23 03:47 37.47953 -121.75772 40207 ft 532 kts 150°
2026-04-23 03:47 37.42016 -121.70212 40202 ft 532 kts 150°
2026-04-23 03:48 37.36083 -121.64663 40202 ft 531 kts 150°
2026-04-23 03:48 37.30148 -121.59131 40205 ft 532 kts 150°
2026-04-23 03:49 37.24209 -121.53601 40223 ft 531 kts 151°
2026-04-23 03:49 37.18316 -121.48125 40220 ft 530 kts 151°
2026-04-23 03:50 37.12377 -121.42620 40220 ft 531 kts 151°
2026-04-23 03:50 37.06446 -121.37130 40224 ft 530 kts 151°
2026-04-23 03:51 37.00539 -121.31675 40226 ft 527 kts 151°
2026-04-23 03:51 36.94642 -121.26242 40179 ft 529 kts 151°
2026-04-23 03:52 36.88726 -121.20798 40221 ft 527 kts 151°
2026-04-23 03:52 36.82854 -121.15408 40230 ft 527 kts 151°
2026-04-23 03:53 36.76929 -121.09979 40209 ft 527 kts 152°
2026-04-23 03:53 36.71016 -121.04571 40222 ft 527 kts 152°
2026-04-23 03:54 36.65108 -120.99179 40223 ft 527 kts 152°
2026-04-23 03:54 36.59188 -120.93787 40204 ft 526 kts 152°
2026-04-23 03:55 36.53325 -120.88457 40208 ft 525 kts 152°
2026-04-23 03:55 36.47421 -120.83100 40210 ft 526 kts 152°
2026-04-23 03:56 36.41504 -120.77740 40205 ft 526 kts 152°
2026-04-23 03:56 36.35595 -120.72401 40207 ft 526 kts 152°
2026-04-23 03:57 36.29719 -120.67099 40199 ft 525 kts 152°
2026-04-23 03:57 36.23803 -120.61771 40191 ft 525 kts 152°
2026-04-23 03:58 36.18122 -120.56664 40181 ft 525 kts 152°
2026-04-23 03:58 36.12206 -120.51358 40185 ft 525 kts 152°
2026-04-23 03:59 36.06343 -120.46107 40180 ft 523 kts 153°
2026-04-23 03:59 36.00452 -120.40842 40181 ft 522 kts 153°
2026-04-23 04:00 35.94563 -120.35591 40176 ft 523 kts 153°
2026-04-23 04:00 35.88676 -120.30350 40176 ft 522 kts 153°
2026-04-23 04:01 35.82781 -120.25108 39770 ft 519 kts 153°
2026-04-23 04:01 35.79852 -120.22507 39182 ft 519 kts 153°
2026-04-23 04:01 35.77101 -120.20070 38516 ft 519 kts 154°
2026-04-23 04:02 35.74219 -120.17521 37680 ft 521 kts 153°
2026-04-23 04:02 35.71298 -120.14938 36876 ft 523 kts 153°
2026-04-23 04:02 35.68336 -120.12321 36048 ft 526 kts 153°
2026-04-23 04:02 35.65344 -120.09697 35210 ft 528 kts 154°
2026-04-23 04:03 35.62240 -120.07299 34379 ft 527 kts 158°
2026-04-23 04:03 35.59113 -120.05010 33778 ft 529 kts 158°
2026-04-23 04:03 35.55930 -120.02667 33450 ft 535 kts 157°
2026-04-23 04:03 35.52742 -120.00298 33194 ft 537 kts 156°
2026-04-23 04:04 35.49591 -119.97942 32940 ft 537 kts 156°
2026-04-23 04:04 35.46411 -119.95559 32691 ft 537 kts 156°
2026-04-23 04:04 35.43217 -119.93164 32419 ft 537 kts 156°
2026-04-23 04:04 35.40031 -119.90777 32141 ft 537 kts 156°
2026-04-23 04:05 35.36832 -119.88385 31885 ft 538 kts 156°
2026-04-23 04:05 35.33638 -119.85992 31637 ft 538 kts 156°
2026-04-23 04:05 35.30567 -119.83693 31401 ft 539 kts 156°
2026-04-23 04:05 35.27356 -119.81013 31171 ft 545 kts 150°
2026-04-23 04:06 35.24324 -119.78203 30925 ft 547 kts 149°
2026-04-23 04:06 35.21347 -119.75408 30658 ft 547 kts 149°
2026-04-23 04:06 35.18337 -119.72584 30428 ft 545 kts 149°
2026-04-23 04:06 35.15324 -119.69765 30174 ft 545 kts 149°
2026-04-23 04:07 35.12311 -119.66953 29887 ft 545 kts 149°
2026-04-23 04:07 35.09303 -119.64148 29613 ft 543 kts 149°
2026-04-23 04:07 35.06310 -119.61362 29290 ft 541 kts 149°
2026-04-23 04:07 35.03321 -119.58581 28550 ft 537 kts 149°
2026-04-23 04:08 35.00359 -119.55827 27910 ft 532 kts 149°
2026-04-23 04:08 34.97432 -119.53110 27278 ft 527 kts 149°
2026-04-23 04:08 34.94524 -119.50413 26650 ft 523 kts 149°
2026-04-23 04:08 34.91677 -119.47775 26031 ft 520 kts 149°
2026-04-23 04:09 34.88795 -119.45146 25513 ft 514 kts 149°
2026-04-23 04:09 34.85921 -119.42583 24966 ft 513 kts 149°
2026-04-23 04:09 34.83050 -119.40028 24467 ft 510 kts 149°
2026-04-23 04:09 34.80192 -119.37481 23975 ft 507 kts 149°
2026-04-23 04:10 34.77398 -119.34987 23714 ft 496 kts 149°
2026-04-23 04:10 34.74646 -119.32527 23373 ft 478 kts 149°
2026-04-23 04:10 34.72009 -119.30200 22854 ft 457 kts 150°
2026-04-23 04:10 34.69471 -119.27984 22147 ft 443 kts 150°
2026-04-23 04:11 34.67015 -119.25842 21619 ft 428 kts 150°
2026-04-23 04:11 34.64648 -119.23783 21138 ft 423 kts 150°
2026-04-23 04:11 34.62245 -119.21709 20715 ft 425 kts 150°
2026-04-23 04:11 34.59840 -119.19647 20334 ft 419 kts 150°
2026-04-23 04:12 34.57483 -119.17611 19857 ft 414 kts 150°
2026-04-23 04:12 34.55171 -119.15619 19450 ft 413 kts 150°
2026-04-23 04:12 34.52821 -119.13546 19002 ft 410 kts 149°
2026-04-23 04:12 34.50530 -119.11513 18595 ft 407 kts 149°
2026-04-23 04:13 34.48243 -119.09488 18146 ft 406 kts 150°
2026-04-23 04:13 34.46111 -119.07603 17767 ft 404 kts 150°
2026-04-23 04:13 34.43924 -119.05665 17372 ft 404 kts 149°
2026-04-23 04:13 34.42420 -119.04338 17043 ft 402 kts 150°
2026-04-23 04:14 34.40157 -119.02379 16581 ft 398 kts 150°
2026-04-23 04:14 34.38025 -119.00538 16200 ft 393 kts 150°
2026-04-23 04:14 34.35816 -118.98631 15807 ft 390 kts 150°
2026-04-23 04:14 34.33639 -118.96753 15427 ft 388 kts 150°
2026-04-23 04:15 34.31438 -118.94793 15011 ft 387 kts 148°
2026-04-23 04:15 34.29298 -118.92831 14689 ft 383 kts 148°
2026-04-23 04:15 34.25228 -118.89103 14148 ft 359 kts 148°
2026-04-23 04:16 34.23256 -118.87298 13733 ft 350 kts 148°
2026-04-23 04:16 34.21385 -118.85570 13334 ft 339 kts 147°
2026-04-23 04:16 34.19504 -118.83839 13075 ft 340 kts 147°
2026-04-23 04:16 34.17656 -118.82139 12685 ft 332 kts 147°
2026-04-23 04:17 34.15797 -118.80429 12328 ft 336 kts 146°
2026-04-23 04:17 34.14041 -118.78579 11843 ft 335 kts 141°
2026-04-23 04:17 34.12342 -118.76665 11444 ft 332 kts 140°
2026-04-23 04:17 34.10653 -118.74777 11108 ft 330 kts 141°
2026-04-23 04:18 34.08974 -118.72902 10784 ft 329 kts 140°
2026-04-23 04:18 34.07318 -118.71080 10591 ft 321 kts 141°
2026-04-23 04:18 34.05679 -118.69323 10390 ft 312 kts 142°
2026-04-23 04:18 34.04082 -118.67577 10069 ft 310 kts 136°
2026-04-23 04:19 34.02944 -118.65410 9839 ft 304 kts 107°
2026-04-23 04:19 34.02581 -118.63016 9680 ft 292 kts 94°
2026-04-23 04:19 34.02381 -118.60622 9499 ft 283 kts 94°
2026-04-23 04:19 34.02179 -118.58282 9236 ft 278 kts 95°
2026-04-23 04:20 34.01983 -118.56100 8978 ft 274 kts 95°
2026-04-23 04:20 34.01781 -118.53877 8590 ft 267 kts 95°
2026-04-23 04:20 34.01577 -118.51663 8097 ft 263 kts 95°
2026-04-23 04:20 34.01382 -118.49578 7753 ft 254 kts 95°
2026-04-23 04:21 34.01177 -118.47404 7500 ft 252 kts 95°
2026-04-23 04:21 34.01118 -118.45307 7201 ft 249 kts 82°
2026-04-23 04:21 34.01403 -118.43275 6895 ft 247 kts 76°
2026-04-23 04:21 34.01764 -118.41249 6591 ft 245 kts 76°
2026-04-23 04:22 34.02118 -118.39256 6300 ft 242 kts 76°
2026-04-23 04:22 34.02464 -118.37285 6037 ft 237 kts 76°
2026-04-23 04:22 34.02790 -118.35399 5931 ft 234 kts 76°
2026-04-23 04:22 34.03048 -118.33448 5924 ft 237 kts 82°
2026-04-23 04:23 34.03224 -118.31468 5938 ft 237 kts 82°
2026-04-23 04:23 34.03400 -118.29492 5879 ft 238 kts 82°
2026-04-23 04:23 34.03600 -118.27523 5746 ft 236 kts 81°
2026-04-23 04:23 34.03814 -118.25565 5644 ft 236 kts 80°
2026-04-23 04:24 34.04031 -118.23621 5431 ft 235 kts 80°
2026-04-23 04:24 34.04204 -118.21675 5317 ft 238 kts 87°
2026-04-23 04:24 34.03905 -118.19593 5296 ft 258 kts 114°
2026-04-23 04:24 34.02922 -118.17916 5201 ft 244 kts 132°
2026-04-23 04:25 34.01780 -118.16448 5057 ft 234 kts 134°
2026-04-23 04:25 34.00672 -118.15065 4900 ft 224 kts 134°
2026-04-23 04:25 33.99611 -118.13740 4593 ft 216 kts 134°
2026-04-23 04:25 33.98584 -118.12459 4332 ft 207 kts 134°
2026-04-23 04:26 33.97539 -118.11334 4173 ft 196 kts 146°
2026-04-23 04:26 33.96326 -118.10738 3901 ft 183 kts 171°
2026-04-23 04:26 33.95110 -118.10772 3650 ft 169 kts 195°
2026-04-23 04:26 33.94096 -118.11295 3557 ft 155 kts 216°
2026-04-23 04:27 33.93335 -118.12136 3501 ft 149 kts 234°
2026-04-23 04:27 33.92851 -118.13194 3452 ft 143 kts 252°
2026-04-23 04:27 33.92669 -118.14366 3406 ft 141 kts 270°
2026-04-23 04:28 33.93117 -118.16628 3288 ft 139 kts 292°
2026-04-23 04:28 33.93463 -118.17722 3222 ft 139 kts 292°
2026-04-23 04:28 33.93805 -118.18808 3156 ft 139 kts 291°
2026-04-23 04:28 33.94145 -118.19903 3072 ft 139 kts 291°
2026-04-23 04:29 33.94481 -118.20980 2970 ft 138 kts 291°
2026-04-23 04:29 33.94813 -118.22060 2882 ft 138 kts 291°
2026-04-23 04:29 33.95146 -118.23146 2754 ft 138 kts 291°
2026-04-23 04:29 33.95481 -118.24228 2597 ft 137 kts 291°
2026-04-23 04:30 33.95812 -118.25301 2446 ft 137 kts 291°
2026-04-23 04:30 33.96139 -118.26368 2262 ft 137 kts 291°
2026-04-23 04:30 33.96334 -118.27511 2058 ft 136 kts 275°
2026-04-23 04:30 33.96319 -118.28640 1995 ft 135 kts 267°
2026-04-23 04:31 33.96248 -118.29587 1861 ft 137 kts 265°
2026-04-23 04:31 33.96148 -118.30724 1683 ft 137 kts 265°
2026-04-23 04:31 33.96048 -118.31827 1490 ft 137 kts 264°
2026-04-23 04:31 33.95953 -118.32962 1308 ft 135 kts 265°
2026-04-23 04:32 33.95838 -118.34068 1123 ft 132 kts 263°
2026-04-23 04:32 33.95722 -118.35177 952 ft 132 kts 264°
2026-04-23 04:32 33.95611 -118.36291 780 ft 135 kts 263°
2026-04-23 04:32 33.95498 -118.37400 600 ft 132 kts 262°
2026-04-23 04:33 33.95392 -118.38424 415 ft 122 kts 262°
2026-04-23 04:33 33.95290 -118.39423 265 ft 120 kts 262°
2026-04-23 04:33 33.95206 -118.40248 141 ft 121 kts 262°
2026-04-23 04:33 33.95141 -118.40883 137 ft 111 kts 262°
2026-04-23 04:34 33.95060 -118.41675 103 ft 84 kts 263°
2026-04-23 04:34 33.95025 -118.42010 99 ft 13 kts 263°
2026-04-23 04:34 33.95024 -118.42020 100 ft 4 kts 263°
2026-04-23 04:34 33.95009 -118.42159 100 ft 24 kts 263°
2026-04-23 04:35 33.94987 -118.42349 102 ft 22 kts 260°
2026-04-23 04:35 33.94937 -118.42543 101 ft 28 kts 241°
2026-04-23 04:35 33.94823 -118.42709 104 ft 24 kts 220°
2026-04-23 04:35 33.94683 -118.42778 104 ft 22 kts 184°
2026-04-23 04:36 33.94652 -118.42776 103 ft 0 kts 176°
2026-04-23 04:37 33.94621 -118.42773 103 ft 14 kts 174°
2026-04-23 04:37 33.94540 -118.42758 102 ft 0 kts 149°
2026-04-23 04:37 33.94538 -118.42748 102 ft 2 kts 102°
2026-04-23 04:37 33.94554 -118.42693 102 ft 13 kts 71°
2026-04-23 04:38 33.94581 -118.42533 99 ft 26 kts 85°
2026-04-23 04:38 33.94600 -118.42307 100 ft 26 kts 84°
2026-04-23 04:38 33.94620 -118.42077 99 ft 29 kts 84°
2026-04-23 04:38 33.94632 -118.41870 99 ft 22 kts 86°
2026-04-23 04:39 33.94648 -118.41680 99 ft 22 kts 83°
2026-04-23 04:39 33.94669 -118.41487 100 ft 24 kts 83°
2026-04-23 04:39 33.94620 -118.41371 101 ft 10 kts 169°
2026-04-23 04:39 33.94543 -118.41360 101 ft 13 kts 168°
2026-04-23 04:40 33.94489 -118.41286 103 ft 12 kts 123°
2026-04-23 04:40 33.94417 -118.41246 101 ft 11 kts 169°
2026-04-23 04:40 33.94334 -118.41230 100 ft 13 kts 173°
2026-04-23 04:40 33.94263 -118.41186 102 ft 10 kts 105°
2026-04-23 04:41 33.94261 -118.41130 100 ft 10 kts 87°
2026-04-23 04:41 33.94263 -118.41110 99 ft 0 kts 86°